Time,TemperatureF,DewpointF,PressureIn,WindDirection,WindDirectionDegrees,WindSpeedMPH,WindSpeedGustMPH,Humidity,HourlyPrecipIn,Conditions,Clouds,dailyrainin,SoftwareType,DateUTC
2013-01-19 00:00:00,43.8,24.9,30.17,SSW,213,8.0,9.0,47,0.00,,---,0.00,VWS V14.01,2013-01-19 06:00:00,
2013-01-19 00:02:00,43.9,25.0,30.17,SSW,210,5.0,11.0,47,0.00,,---,0.00,VWS V14.01,2013-01-19 06:02:00,
2013-01-19 00:04:00,43.9,25.0,30.18,SW,227,5.0,11.0,47,0.00,,---,0.00,VWS V14.01,2013-01-19 06:04:00,
2013-01-19 00:06:00,44.0,25.1,30.18,SW,221,5.0,11.0,47,0.00,,---,0.00,VWS V14.01,2013-01-19 06:06:00,
2013-01-19 00:08:00,44.0,25.1,30.18,SW,232,4.0,11.0,47,0.00,,---,0.00,VWS V14.01,2013-01-19 06:08:00,
2013-01-19 00:10:00,44.0,25.1,30.18,SW,221,5.0,11.0,47,0.00,,---,0.00,VWS V14.01,2013-01-19 06:10:00,
2013-01-19 00:12:00,44.0,25.1,30.18,SW,220,5.0,11.0,47,0.00,,---,0.00,VWS V14.01,2013-01-19 06:12:00,
2013-01-19 00:14:00,44.0,25.1,30.18,SW,217,5.0,11.0,47,0.00,,---,0.00,VWS V14.01,2013-01-19 06:14:00,
2013-01-19 00:16:00,44.0,25.1,30.18,SW,222,4.0,11.0,47,0.00,,---,0.00,VWS V14.01,2013-01-19 06:16:00,
2013-01-19 00:18:00,44.0,25.1,30.18,SSW,213,4.0,11.0,47,0.00,,---,0.00,VWS V14.01,2013-01-19 06:18:00,
2013-01-19 00:20:00,43.9,25.0,30.18,SW,214,3.0,11.0,47,0.00,,---,0.00,VWS V14.01,2013-01-19 06:20:00,
2013-01-19 00:22:00,43.9,25.5,30.17,SW,214,4.0,11.0,48,0.00,,---,0.00,VWS V14.01,2013-01-19 06:22:00,
2013-01-19 00:24:00,43.8,25.4,30.18,SW,214,3.0,11.0,48,0.00,,---,0.00,VWS V14.01,2013-01-19 06:24:00,
2013-01-19 00:26:00,43.7,25.3,30.18,SW,214,3.0,11.0,48,0.00,,---,0.00,VWS V14.01,2013-01-19 06:26:00,
2013-01-19 00:28:00,43.7,25.3,30.18,SW,214,4.0,11.0,48,0.00,,---,0.00,VWS V14.01,2013-01-19 06:28:00,
2013-01-19 00:30:00,43.6,25.2,30.18,SW,214,2.0,11.0,48,0.00,,---,0.00,VWS V14.01,2013-01-19 06:30:00,
2013-01-19 00:32:00,43.5,25.1,30.17,SW,214,2.0,5.0,48,0.00,,---,0.00,VWS V14.01,2013-01-19 06:32:00,
2013-01-19 00:34:00,43.4,25.0,30.17,SW,214,1.0,5.0,48,0.00,,---,0.00,VWS V14.01,2013-01-19 06:34:00,
2013-01-19 00:36:00,43.3,25.4,30.17,SSW,213,2.0,5.0,49,0.00,,---,0.00,VWS V14.01,2013-01-19 06:36:00,
2013-01-19 00:38:00,43.3,25.4,30.17,SSW,213,2.0,5.0,49,0.00,,---,0.00,VWS V14.01,2013-01-19 06:38:00,
2013-01-19 00:40:00,43.2,25.4,30.17,SSW,213,4.0,5.0,49,0.00,,---,0.00,VWS V14.01,2013-01-19 06:40:00,
2013-01-19 00:42:00,43.1,25.3,30.17,SSW,213,3.0,5.0,49,0.00,,---,0.00,VWS V14.01,2013-01-19 06:42:00,
2013-01-19 00:44:00,43.0,25.2,30.17,SSW,212,2.0,5.0,49,0.00,,---,0.00,VWS V14.01,2013-01-19 06:44:00,
2013-01-19 00:46:00,42.9,25.6,30.17,SSW,211,4.0,5.0,50,0.00,,---,0.00,VWS V14.01,2013-01-19 06:46:00,
2013-01-19 00:48:00,42.9,25.6,30.17,SSW,210,3.0,5.0,50,0.00,,---,0.00,VWS V14.01,2013-01-19 06:48:00,
2013-01-19 00:50:00,42.9,25.6,30.17,SSW,207,3.0,5.0,50,0.00,,---,0.00,VWS V14.01,2013-01-19 06:50:00,
2013-01-19 00:52:00,42.8,25.5,30.17,SSW,205,1.0,7.0,50,0.00,,---,0.00,VWS V14.01,2013-01-19 06:52:00,
2013-01-19 00:54:00,42.8,25.5,30.16,SSW,206,2.0,7.0,50,0.00,,---,0.00,VWS V14.01,2013-01-19 06:54:00,
2013-01-19 00:56:00,42.8,25.9,30.17,SSW,205,3.0,7.0,51,0.00,,---,0.00,VWS V14.01,2013-01-19 06:56:00,
2013-01-19 00:58:00,42.8,25.9,30.17,SSW,205,3.0,7.0,51,0.00,,---,0.00,VWS V14.01,2013-01-19 06:58:00,
2013-01-19 01:00:00,42.8,25.9,30.16,SSW,205,2.0,7.0,51,0.00,,---,0.00,VWS V14.01,2013-01-19 07:00:00,
2013-01-19 01:02:00,42.8,25.9,30.16,SSW,205,2.0,5.0,51,0.00,,---,0.00,VWS V14.01,2013-01-19 07:02:00,
2013-01-19 01:04:00,42.8,25.9,30.16,SSW,205,2.0,7.0,51,0.00,,---,0.00,VWS V14.01,2013-01-19 07:04:00,
2013-01-19 01:06:00,42.7,25.9,30.16,SSW,205,1.0,7.0,51,0.00,,---,0.00,VWS V14.01,2013-01-19 07:06:00,
2013-01-19 01:08:00,42.7,25.9,30.16,SSW,204,2.0,7.0,51,0.00,,---,0.00,VWS V14.01,2013-01-19 07:08:00,
2013-01-19 01:10:00,42.7,25.9,30.16,SSW,204,1.0,7.0,51,0.00,,---,0.00,VWS V14.01,2013-01-19 07:10:00,
2013-01-19 01:12:00,42.6,26.2,30.16,SSW,203,2.0,7.0,52,0.00,,---,0.00,VWS V14.01,2013-01-19 07:12:00,
2013-01-19 01:14:00,42.6,26.2,30.16,SSW,202,5.0,7.0,52,0.00,,---,0.00,VWS V14.01,2013-01-19 07:14:00,
2013-01-19 01:16:00,42.5,26.1,30.16,SSW,202,1.0,7.0,52,0.00,,---,0.00,VWS V14.01,2013-01-19 07:16:00,
2013-01-19 01:18:00,42.5,26.1,30.16,SSW,202,2.0,7.0,52,0.00,,---,0.00,VWS V14.01,2013-01-19 07:18:00,
2013-01-19 01:20:00,42.4,26.0,30.16,SSW,200,2.0,7.0,52,0.00,,---,0.00,VWS V14.01,2013-01-19 07:20:00,
2013-01-19 01:22:00,42.3,26.4,30.16,SSW,199,0.0,7.0,53,0.00,,---,0.00,VWS V14.01,2013-01-19 07:22:00,
2013-01-19 01:24:00,42.3,26.4,30.16,SSW,198,0.0,7.0,53,0.00,,---,0.00,VWS V14.01,2013-01-19 07:24:00,
2013-01-19 01:26:00,42.2,26.3,30.16,SSW,197,1.0,7.0,53,0.00,,---,0.00,VWS V14.01,2013-01-19 07:26:00,
2013-01-19 01:28:00,42.2,26.3,30.16,SSW,197,0.0,7.0,53,0.00,,---,0.00,VWS V14.01,2013-01-19 07:28:00,
2013-01-19 01:30:00,42.2,26.3,30.16,SSW,196,3.0,7.0,53,0.00,,---,0.00,VWS V14.01,2013-01-19 07:30:00,
2013-01-19 01:32:00,42.1,26.2,30.16,SSW,195,0.0,3.0,53,0.00,,---,0.00,VWS V14.01,2013-01-19 07:32:00,
2013-01-19 01:34:00,42.1,26.7,30.16,SSW,194,2.0,3.0,54,0.00,,---,0.00,VWS V14.01,2013-01-19 07:34:00,
2013-01-19 01:36:00,42.1,26.7,30.16,SSW,192,1.0,5.0,54,0.00,,---,0.00,VWS V14.01,2013-01-19 07:36:00,
2013-01-19 01:38:00,42.1,26.7,30.15,SSW,192,1.0,5.0,54,0.00,,---,0.00,VWS V14.01,2013-01-19 07:38:00,
2013-01-19 01:40:00,42.1,26.7,30.15,SSW,192,4.0,5.0,54,0.00,,---,0.00,VWS V14.01,2013-01-19 07:40:00,
2013-01-19 01:42:00,42.2,26.8,30.16,SSW,193,2.0,5.0,54,0.00,,---,0.00,VWS V14.01,2013-01-19 07:42:00,
2013-01-19 01:44:00,42.2,26.8,30.16,SSW,193,1.0,5.0,54,0.00,,---,0.00,VWS V14.01,2013-01-19 07:44:00,
2013-01-19 01:46:00,42.2,26.8,30.15,SSW,198,0.0,5.0,54,0.00,,---,0.00,VWS V14.01,2013-01-19 07:46:00,
2013-01-19 01:48:00,42.2,26.8,30.15,SSW,197,1.0,5.0,54,0.00,,---,0.00,VWS V14.01,2013-01-19 07:48:00,
2013-01-19 01:55:00,42.2,27.2,30.15,SSW,195,3.0,5.0,55,0.00,,---,0.00,VWS V14.01,2013-01-19 07:55:00,
2013-01-19 01:57:00,42.2,27.2,30.15,SSW,198,3.0,5.0,55,0.00,,---,0.00,VWS V14.01,2013-01-19 07:57:00,
2013-01-19 01:59:00,42.2,27.2,30.15,SSW,199,1.0,5.0,55,0.00,,---,0.00,VWS V14.01,2013-01-19 07:59:00,
2013-01-19 02:00:00,42.2,27.2,30.15,SSW,199,1.0,5.0,55,0.00,,---,0.00,VWS V14.01,2013-01-19 08:00:00,
2013-01-19 02:01:00,42.2,27.2,30.14,SSW,200,3.0,5.0,55,0.00,,---,0.00,VWS V14.01,2013-01-19 08:01:00,
2013-01-19 02:03:00,42.2,27.2,30.15,SSW,200,3.0,5.0,55,0.00,,---,0.00,VWS V14.01,2013-01-19 08:03:00,
2013-01-19 02:05:00,42.3,27.3,30.15,SSW,200,1.0,5.0,55,0.00,,---,0.00,VWS V14.01,2013-01-19 08:05:00,
2013-01-19 02:07:00,42.3,27.3,30.15,SSW,200,0.0,5.0,55,0.00,,---,0.00,VWS V14.01,2013-01-19 08:07:00,
2013-01-19 02:09:00,42.3,27.3,30.14,SSW,200,3.0,5.0,55,0.00,,---,0.00,VWS V14.01,2013-01-19 08:09:00,
2013-01-19 02:11:00,42.3,27.3,30.14,SSW,201,0.0,6.0,55,0.00,,---,0.00,VWS V14.01,2013-01-19 08:11:00,
2013-01-19 02:13:00,42.3,27.3,30.15,SSW,198,2.0,6.0,55,0.00,,---,0.00,VWS V14.01,2013-01-19 08:13:00,
2013-01-19 02:15:00,42.3,27.3,30.14,SSW,197,2.0,6.0,55,0.00,,---,0.00,VWS V14.01,2013-01-19 08:15:00,
2013-01-19 02:17:00,42.3,27.3,30.15,SSW,199,3.0,6.0,55,0.00,,---,0.00,VWS V14.01,2013-01-19 08:17:00,
2013-01-19 02:19:00,42.3,27.7,30.14,SSW,201,2.0,6.0,56,0.00,,---,0.00,VWS V14.01,2013-01-19 08:19:00,
2013-01-19 02:21:00,42.3,27.7,30.14,SSW,202,4.0,6.0,56,0.00,,---,0.00,VWS V14.01,2013-01-19 08:21:00,
2013-01-19 02:23:00,42.4,27.8,30.14,SSW,201,0.0,6.0,56,0.00,,---,0.00,VWS V14.01,2013-01-19 08:23:00,
2013-01-19 02:25:00,42.4,27.8,30.14,SSW,201,1.0,6.0,56,0.00,,---,0.00,VWS V14.01,2013-01-19 08:25:00,
2013-01-19 02:27:00,42.4,27.8,30.14,SSW,201,0.0,6.0,56,0.00,,---,0.00,VWS V14.01,2013-01-19 08:27:00,
2013-01-19 02:29:00,42.3,27.7,30.14,SSW,201,1.0,6.0,56,0.00,,---,0.00,VWS V14.01,2013-01-19 08:29:00,
2013-01-19 02:30:00,42.3,27.7,30.14,SSW,200,4.0,6.0,56,0.00,,---,0.00,VWS V14.01,2013-01-19 08:30:00,
2013-01-19 02:31:00,42.3,27.7,30.14,SSW,200,0.0,4.0,56,0.00,,---,0.00,VWS V14.01,2013-01-19 08:31:00,
2013-01-19 02:33:00,42.3,27.7,30.14,SSW,200,2.0,4.0,56,0.00,,---,0.00,VWS V14.01,2013-01-19 08:33:00,
2013-01-19 02:35:00,42.2,27.6,30.14,SSW,200,1.0,4.0,56,0.00,,---,0.00,VWS V14.01,2013-01-19 08:35:00,
2013-01-19 02:37:00,42.2,27.6,30.14,SSW,200,2.0,4.0,56,0.00,,---,0.00,VWS V14.01,2013-01-19 08:37:00,
2013-01-19 02:39:00,42.2,27.6,30.14,SSW,199,2.0,5.0,56,0.00,,---,0.00,VWS V14.01,2013-01-19 08:39:00,
2013-01-19 02:41:00,42.2,28.1,30.14,SSW,199,0.0,5.0,57,0.00,,---,0.00,VWS V14.01,2013-01-19 08:41:00,
2013-01-19 02:43:00,42.2,28.1,30.14,SSW,199,0.0,5.0,57,0.00,,---,0.00,VWS V14.01,2013-01-19 08:43:00,
2013-01-19 02:45:00,42.1,28.0,30.14,SSW,199,6.0,6.0,57,0.00,,---,0.00,VWS V14.01,2013-01-19 08:45:00,
2013-01-19 02:47:00,42.1,28.0,30.14,SSW,199,3.0,6.0,57,0.00,,---,0.00,VWS V14.01,2013-01-19 08:47:00,
2013-01-19 02:49:00,42.1,28.0,30.14,SSW,200,0.0,6.0,57,0.00,,---,0.00,VWS V14.01,2013-01-19 08:49:00,
2013-01-19 02:51:00,42.1,28.0,30.14,SSW,199,1.0,6.0,57,0.00,,---,0.00,VWS V14.01,2013-01-19 08:51:00,
2013-01-19 02:53:00,42.0,27.9,30.14,SSW,199,2.0,6.0,57,0.00,,---,0.00,VWS V14.01,2013-01-19 08:53:00,
2013-01-19 02:55:00,42.0,27.9,30.14,SSW,199,2.0,6.0,57,0.00,,---,0.00,VWS V14.01,2013-01-19 08:55:00,
2013-01-19 02:57:00,42.0,27.9,30.14,SSW,198,2.0,6.0,57,0.00,,---,0.00,VWS V14.01,2013-01-19 08:57:00,
2013-01-19 02:59:00,41.9,27.8,30.13,SSW,198,3.0,6.0,57,0.00,,---,0.00,VWS V14.01,2013-01-19 08:59:00,
2013-01-19 03:00:00,41.9,27.8,30.13,SSW,198,2.0,6.0,57,0.00,,---,0.00,VWS V14.01,2013-01-19 09:00:00,
2013-01-19 03:01:00,41.9,28.2,30.13,SSW,198,0.0,4.0,58,0.00,,---,0.00,VWS V14.01,2013-01-19 09:01:00,
2013-01-19 03:03:00,41.9,28.2,30.13,SSW,198,1.0,4.0,58,0.00,,---,0.00,VWS V14.01,2013-01-19 09:03:00,
2013-01-19 03:06:00,41.8,28.1,30.13,SSW,197,2.0,4.0,58,0.00,,---,0.00,VWS V14.01,2013-01-19 09:06:00,
2013-01-19 03:08:00,41.8,28.1,30.13,SSW,196,2.0,4.0,58,0.00,,---,0.00,VWS V14.01,2013-01-19 09:08:00,
2013-01-19 03:10:00,41.9,28.2,30.13,South,184,0.0,6.0,58,0.00,,---,0.00,VWS V14.01,2013-01-19 09:10:00,
2013-01-19 03:12:00,41.9,28.2,30.13,South,184,2.0,6.0,58,0.00,,---,0.00,VWS V14.01,2013-01-19 09:12:00,
2013-01-19 03:14:00,41.9,28.2,30.13,South,184,1.0,6.0,58,0.00,,---,0.00,VWS V14.01,2013-01-19 09:14:00,
2013-01-19 03:16:00,41.8,28.1,30.13,South,183,1.0,6.0,58,0.00,,---,0.00,VWS V14.01,2013-01-19 09:16:00,
2013-01-19 03:18:00,41.8,28.1,30.13,South,183,2.0,6.0,58,0.00,,---,0.00,VWS V14.01,2013-01-19 09:18:00,
2013-01-19 03:20:00,41.8,28.1,30.13,South,183,2.0,6.0,58,0.00,,---,0.00,VWS V14.01,2013-01-19 09:20:00,
2013-01-19 03:22:00,41.8,28.1,30.13,South,183,0.0,6.0,58,0.00,,---,0.00,VWS V14.01,2013-01-19 09:22:00,
2013-01-19 03:24:00,41.8,28.1,30.13,South,185,1.0,6.0,58,0.00,,---,0.00,VWS V14.01,2013-01-19 09:24:00,
2013-01-19 03:26:00,41.8,28.5,30.13,South,185,1.0,6.0,59,0.00,,---,0.00,VWS V14.01,2013-01-19 09:26:00,
2013-01-19 03:28:00,41.8,28.5,30.13,South,185,0.0,6.0,59,0.00,,---,0.00,VWS V14.01,2013-01-19 09:28:00,
2013-01-19 03:30:00,41.7,28.4,30.13,South,180,4.0,6.0,59,0.00,,---,0.00,VWS V14.01,2013-01-19 09:30:00,
2013-01-19 03:34:00,42.2,26.8,30.15,SSW,197,2.0,5.0,54,0.00,,---,0.00,VWS V14.01,2013-01-19 09:34:00,
2013-01-19 04:00:00,42.0,29.1,30.13,South,178,1.0,7.0,60,0.00,,---,0.00,VWS V14.01,2013-01-19 10:00:00,
2013-01-19 04:30:00,42.1,29.2,30.13,South,184,0.0,8.0,60,0.00,,---,0.00,VWS V14.01,2013-01-19 10:30:00,
2013-01-19 05:00:00,42.7,29.8,30.13,South,190,2.0,10.0,60,0.00,,---,0.00,VWS V14.01,2013-01-19 11:00:00,
2013-01-19 05:06:00,42.6,30.1,30.13,South,186,1.0,5.0,61,0.00,,---,0.00,VWS V14.01,2013-01-19 11:06:00,
2013-01-19 05:08:00,42.5,30.0,30.12,South,185,1.0,5.0,61,0.00,,---,0.00,VWS V14.01,2013-01-19 11:08:00,
2013-01-19 05:10:00,42.5,30.0,30.13,South,185,1.0,5.0,61,0.00,,---,0.00,VWS V14.01,2013-01-19 11:10:00,
2013-01-19 05:12:00,42.4,29.9,30.13,South,180,0.0,5.0,61,0.00,,---,0.00,VWS V14.01,2013-01-19 11:12:00,
2013-01-19 05:14:00,42.4,29.9,30.12,South,180,0.0,5.0,61,0.00,,---,0.00,VWS V14.01,2013-01-19 11:14:00,
2013-01-19 05:15:00,42.3,29.8,30.12,South,185,1.0,5.0,61,0.00,,---,0.00,VWS V14.01,2013-01-19 11:15:00,
2013-01-19 05:17:00,42.3,30.2,30.13,SW,223,1.0,5.0,62,0.00,,---,0.00,VWS V14.01,2013-01-19 11:17:00,
2013-01-19 05:20:00,42.3,30.2,30.13,SSW,208,0.0,5.0,62,0.00,,---,0.00,VWS V14.01,2013-01-19 11:20:00,
2013-01-19 05:22:00,42.3,30.6,30.12,SSW,208,1.0,5.0,63,0.00,,---,0.00,VWS V14.01,2013-01-19 11:22:00,
2013-01-19 05:24:00,42.4,30.7,30.13,SSW,209,0.0,5.0,63,0.00,,---,0.00,VWS V14.01,2013-01-19 11:24:00,
2013-01-19 05:26:00,42.4,30.3,30.13,SSW,198,1.0,5.0,62,0.00,,---,0.00,VWS V14.01,2013-01-19 11:26:00,
2013-01-19 05:28:00,42.4,30.3,30.12,SSW,197,1.0,5.0,62,0.00,,---,0.00,VWS V14.01,2013-01-19 11:28:00,
2013-01-19 05:30:00,42.4,30.7,30.12,SSW,201,0.0,5.0,63,0.00,,---,0.00,VWS V14.01,2013-01-19 11:30:00,
2013-01-19 05:32:00,42.4,30.7,30.12,SSW,206,1.0,4.0,63,0.00,,---,0.00,VWS V14.01,2013-01-19 11:32:00,
2013-01-19 05:34:00,42.4,30.7,30.12,SSW,204,1.0,4.0,63,0.00,,---,0.00,VWS V14.01,2013-01-19 11:34:00,
2013-01-19 05:36:00,42.4,30.7,30.12,SSW,200,0.0,4.0,63,0.00,,---,0.00,VWS V14.01,2013-01-19 11:36:00,
2013-01-19 05:38:00,42.4,30.7,30.13,SSW,209,4.0,6.0,63,0.00,,---,0.00,VWS V14.01,2013-01-19 11:38:00,
2013-01-19 05:40:00,42.5,31.2,30.13,SSW,207,2.0,14.0,64,0.00,,---,0.00,VWS V14.01,2013-01-19 11:40:00,
2013-01-19 05:42:00,42.7,31.0,30.12,SW,225,6.0,14.0,63,0.00,,---,0.00,VWS V14.01,2013-01-19 11:42:00,
2013-01-19 05:44:00,42.9,31.2,30.13,SSW,200,0.0,14.0,63,0.00,,---,0.00,VWS V14.01,2013-01-19 11:44:00,
2013-01-19 05:46:00,42.9,31.2,30.13,SSW,207,1.0,14.0,63,0.00,,---,0.00,VWS V14.01,2013-01-19 11:46:00,
2013-01-19 05:48:00,43.0,31.3,30.13,SSW,196,2.0,14.0,63,0.00,,---,0.00,VWS V14.01,2013-01-19 11:48:00,
2013-01-19 05:50:00,43.0,31.3,30.13,SSW,200,3.0,14.0,63,0.00,,---,0.00,VWS V14.01,2013-01-19 11:50:00,
2013-01-19 05:52:00,43.1,31.4,30.13,SSW,209,5.0,14.0,63,0.00,,---,0.00,VWS V14.01,2013-01-19 11:52:00,
2013-01-19 05:54:00,43.2,31.5,30.13,South,180,6.0,14.0,63,0.00,,---,0.00,VWS V14.01,2013-01-19 11:54:00,
2013-01-19 05:56:00,43.3,31.6,30.13,SSW,194,1.0,14.0,63,0.00,,---,0.00,VWS V14.01,2013-01-19 11:56:00,
2013-01-19 05:58:00,43.4,31.3,30.12,SSW,205,0.0,14.0,62,0.00,,---,0.00,VWS V14.01,2013-01-19 11:58:00,
2013-01-19 06:00:00,43.4,31.3,30.12,SSW,198,1.0,14.0,62,0.00,,---,0.00,VWS V14.01,2013-01-19 12:00:00,
2013-01-19 06:02:00,43.4,31.3,30.12,South,188,1.0,4.0,62,0.00,,---,0.00,VWS V14.01,2013-01-19 12:02:00,
2013-01-19 06:04:00,43.4,31.3,30.12,South,188,1.0,4.0,62,0.00,,---,0.00,VWS V14.01,2013-01-19 12:04:00,
2013-01-19 06:06:00,43.4,31.3,30.13,South,190,2.0,4.0,62,0.00,,---,0.00,VWS V14.01,2013-01-19 12:06:00,
2013-01-19 06:08:00,43.4,31.3,30.13,South,190,0.0,4.0,62,0.00,,---,0.00,VWS V14.01,2013-01-19 12:08:00,
2013-01-19 06:10:00,43.3,31.2,30.12,South,189,0.0,4.0,62,0.00,,---,0.00,VWS V14.01,2013-01-19 12:10:00,
2013-01-19 06:12:00,43.3,31.6,30.13,South,188,1.0,4.0,63,0.00,,---,0.00,VWS V14.01,2013-01-19 12:12:00,
2013-01-19 06:14:00,43.3,31.6,30.13,SSW,197,1.0,4.0,63,0.00,,---,0.00,VWS V14.01,2013-01-19 12:14:00,
2013-01-19 06:16:00,43.3,31.6,30.12,South,176,1.0,6.0,63,0.00,,---,0.00,VWS V14.01,2013-01-19 12:16:00,
2013-01-19 06:18:00,43.4,31.7,30.13,SSW,194,2.0,7.0,63,0.00,,---,0.00,VWS V14.01,2013-01-19 12:18:00,
2013-01-19 06:20:00,43.5,31.8,30.13,SSW,194,1.0,7.0,63,0.00,,---,0.00,VWS V14.01,2013-01-19 12:20:00,
2013-01-19 06:22:00,43.6,31.9,30.12,SSW,198,3.0,7.0,63,0.00,,---,0.00,VWS V14.01,2013-01-19 12:22:00,
2013-01-19 06:24:00,43.8,32.0,30.13,South,182,3.0,7.0,63,0.00,,---,0.00,VWS V14.01,2013-01-19 12:24:00,
2013-01-19 06:26:00,43.9,31.7,30.12,SSW,196,0.0,7.0,62,0.00,,---,0.00,VWS V14.01,2013-01-19 12:26:00,
2013-01-19 06:28:00,44.0,31.8,30.12,South,191,1.0,7.0,62,0.00,,---,0.00,VWS V14.01,2013-01-19 12:28:00,
2013-01-19 06:30:00,44.1,31.9,30.13,South,191,2.0,7.0,62,0.00,,---,0.00,VWS V14.01,2013-01-19 12:30:00,
2013-01-19 06:32:00,44.3,32.1,30.13,SSW,213,3.0,6.0,62,0.00,,---,0.00,VWS V14.01,2013-01-19 12:32:00,
2013-01-19 06:34:00,44.4,32.2,30.13,SW,217,6.0,6.0,62,0.00,,---,0.00,VWS V14.01,2013-01-19 12:34:00,
2013-01-19 06:36:00,44.7,32.5,30.13,SSW,211,4.0,6.0,62,0.00,,---,0.00,VWS V14.01,2013-01-19 12:36:00,
2013-01-19 06:38:00,44.9,32.7,30.13,SW,224,5.0,6.0,62,0.00,,---,0.00,VWS V14.01,2013-01-19 12:38:00,
2013-01-19 06:40:00,45.1,32.9,30.13,SSW,206,4.0,6.0,62,0.00,,---,0.00,VWS V14.01,2013-01-19 12:40:00,
2013-01-19 06:42:00,45.4,32.8,30.13,SW,214,5.0,7.0,61,0.00,,---,0.00,VWS V14.01,2013-01-19 12:42:00,
2013-01-19 06:44:00,45.8,33.1,30.13,SSW,198,8.0,18.0,61,0.00,,---,0.00,VWS V14.01,2013-01-19 12:44:00,
2013-01-19 06:46:00,46.1,33.0,30.13,SW,219,3.0,18.0,60,0.00,,---,0.00,VWS V14.01,2013-01-19 12:46:00,
2013-01-19 06:48:00,46.5,33.4,30.13,SW,217,8.0,18.0,60,0.00,,---,0.00,VWS V14.01,2013-01-19 12:48:00,
2013-01-19 06:50:00,46.8,33.2,30.13,SW,232,7.0,18.0,59,0.00,,---,0.00,VWS V14.01,2013-01-19 12:50:00,
2013-01-19 06:52:00,47.1,33.1,30.13,SW,223,8.0,18.0,58,0.00,,---,0.00,VWS V14.01,2013-01-19 12:52:00,
2013-01-19 06:54:00,47.4,33.4,30.12,SSW,213,3.0,18.0,58,0.00,,---,0.00,VWS V14.01,2013-01-19 12:54:00,
2013-01-19 06:57:00,47.7,33.2,30.12,SW,226,7.0,18.0,57,0.00,,---,0.00,VWS V14.01,2013-01-19 12:57:00,
2013-01-19 06:58:00,47.8,33.3,30.13,SW,225,8.0,18.0,57,0.00,,---,0.00,VWS V14.01,2013-01-19 12:58:00,
2013-01-19 07:00:00,48.0,33.5,30.13,SW,222,9.0,18.0,57,0.00,,---,0.00,VWS V14.01,2013-01-19 13:00:00,
2013-01-19 07:01:00,48.1,33.6,30.13,SW,225,6.0,9.0,57,0.00,,---,0.00,VWS V14.01,2013-01-19 13:01:00,
2013-01-19 07:03:00,48.3,33.3,30.13,SW,217,5.0,11.0,56,0.00,,---,0.00,VWS V14.01,2013-01-19 13:03:00,
2013-01-19 07:05:00,48.4,33.4,30.12,SW,215,2.0,11.0,56,0.00,,---,0.00,VWS V14.01,2013-01-19 13:05:00,
2013-01-19 07:07:00,48.5,33.5,30.12,SW,219,5.0,11.0,56,0.00,,---,0.00,VWS V14.01,2013-01-19 13:07:00,
2013-01-19 07:09:00,48.7,33.7,30.13,SSW,199,7.0,11.0,56,0.00,,---,0.00,VWS V14.01,2013-01-19 13:09:00,
2013-01-19 07:11:00,48.8,33.4,30.13,SW,221,4.0,11.0,55,0.00,,---,0.00,VWS V14.01,2013-01-19 13:11:00,
2013-01-19 07:13:00,49.0,33.5,30.13,WSW,244,5.0,12.0,55,0.00,,---,0.00,VWS V14.01,2013-01-19 13:13:00,
2013-01-19 07:15:00,49.1,33.7,30.13,SW,216,3.0,12.0,55,0.00,,---,0.00,VWS V14.01,2013-01-19 13:15:00,
2013-01-19 07:17:00,49.2,33.7,30.13,SW,218,5.0,12.0,55,0.00,,---,0.00,VWS V14.01,2013-01-19 13:17:00,
2013-01-19 07:19:00,49.4,33.5,30.13,SW,229,6.0,12.0,54,0.00,,---,0.00,VWS V14.01,2013-01-19 13:19:00,
2013-01-19 07:21:00,49.5,33.6,30.13,SW,220,4.0,12.0,54,0.00,,---,0.00,VWS V14.01,2013-01-19 13:21:00,
2013-01-19 07:23:00,49.6,33.7,30.13,SW,227,3.0,12.0,54,0.00,,---,0.00,VWS V14.01,2013-01-19 13:23:00,
2013-01-19 07:25:00,49.8,33.8,30.13,SW,229,8.0,12.0,54,0.00,,---,0.00,VWS V14.01,2013-01-19 13:25:00,
2013-01-19 07:27:00,49.9,33.9,30.13,SW,218,4.0,12.0,54,0.00,,---,0.00,VWS V14.01,2013-01-19 13:27:00,
2013-01-19 07:29:00,50.0,34.0,30.13,SW,234,5.0,12.0,54,0.00,,---,0.00,VWS V14.01,2013-01-19 13:29:00,
2013-01-19 07:30:00,50.1,33.7,30.13,SW,234,6.0,12.0,53,0.00,,---,0.00,VWS V14.01,2013-01-19 13:30:00,
2013-01-19 07:31:00,50.2,33.7,30.13,WSW,244,5.0,7.0,53,0.00,,---,0.00,VWS V14.01,2013-01-19 13:31:00,
2013-01-19 07:33:00,50.3,33.8,30.13,SW,230,10.0,10.0,53,0.00,,---,0.00,VWS V14.01,2013-01-19 13:33:00,
2013-01-19 07:35:00,50.5,33.5,30.14,WSW,241,12.0,21.0,52,0.00,,---,0.00,VWS V14.01,2013-01-19 13:35:00,
2013-01-19 07:37:00,50.6,33.6,30.14,SW,236,3.0,21.0,52,0.00,,---,0.00,VWS V14.01,2013-01-19 13:37:00,
2013-01-19 07:39:00,50.8,33.8,30.14,WSW,250,4.0,21.0,52,0.00,,---,0.00,VWS V14.01,2013-01-19 13:39:00,
2013-01-19 07:41:00,50.9,33.9,30.14,WSW,249,10.0,21.0,52,0.00,,---,0.00,VWS V14.01,2013-01-19 13:41:00,
2013-01-19 07:45:00,51.1,34.1,30.14,WSW,244,11.0,21.0,52,0.00,,---,0.00,VWS V14.01,2013-01-19 13:45:00,
2013-01-19 07:47:00,51.2,34.2,30.14,WSW,248,12.0,21.0,52,0.00,,---,0.00,VWS V14.01,2013-01-19 13:47:00,
2013-01-19 07:49:00,51.3,33.8,30.14,SW,236,11.0,21.0,51,0.00,,---,0.00,VWS V14.01,2013-01-19 13:49:00,
2013-01-19 07:51:00,51.4,33.9,30.14,SW,220,9.0,21.0,51,0.00,,---,0.00,VWS V14.01,2013-01-19 13:51:00,
2013-01-19 07:53:00,51.5,34.0,30.14,SW,227,4.0,21.0,51,0.00,,---,0.00,VWS V14.01,2013-01-19 13:53:00,
2013-01-19 07:55:00,51.7,34.2,30.14,WSW,248,8.0,21.0,51,0.00,,---,0.00,VWS V14.01,2013-01-19 13:55:00,
2013-01-19 07:57:00,51.7,34.2,30.14,SW,234,11.0,21.0,51,0.00,,---,0.00,VWS V14.01,2013-01-19 13:57:00,
2013-01-19 07:59:00,51.9,34.4,30.14,WSW,243,14.0,21.0,51,0.00,,---,0.00,VWS V14.01,2013-01-19 13:59:00,
2013-01-19 08:00:00,51.9,34.4,30.14,WSW,237,8.0,21.0,51,0.00,,---,0.00,VWS V14.01,2013-01-19 14:00:00,
2013-01-19 08:01:00,52.1,34.5,30.14,WSW,242,11.0,13.0,51,0.00,,---,0.00,VWS V14.01,2013-01-19 14:01:00,
2013-01-19 08:03:00,52.2,34.1,30.14,WSW,258,14.0,23.0,50,0.00,,---,0.00,VWS V14.01,2013-01-19 14:03:00,
2013-01-19 08:05:00,52.3,34.2,30.14,WSW,246,10.0,23.0,50,0.00,,---,0.00,VWS V14.01,2013-01-19 14:05:00,
2013-01-19 08:07:00,52.5,34.4,30.14,SW,227,7.0,23.0,50,0.00,,---,0.00,VWS V14.01,2013-01-19 14:07:00,
2013-01-19 08:09:00,52.7,34.6,30.14,WSW,238,12.0,23.0,50,0.00,,---,0.00,VWS V14.01,2013-01-19 14:09:00,
2013-01-19 08:11:00,52.9,34.8,30.14,WSW,250,6.0,23.0,50,0.00,,---,0.00,VWS V14.01,2013-01-19 14:11:00,
2013-01-19 08:13:00,53.1,34.5,30.14,WSW,237,10.0,23.0,49,0.00,,---,0.00,VWS V14.01,2013-01-19 14:13:00,
2013-01-19 08:15:00,53.3,34.7,30.14,WSW,237,6.0,23.0,49,0.00,,---,0.00,VWS V14.01,2013-01-19 14:15:00,
2013-01-19 08:17:00,53.5,34.8,30.14,WSW,250,11.0,23.0,49,0.00,,---,0.00,VWS V14.01,2013-01-19 14:17:00,
2013-01-19 08:19:00,53.7,35.0,30.14,WSW,247,10.0,23.0,49,0.00,,---,0.00,VWS V14.01,2013-01-19 14:19:00,
2013-01-19 08:21:00,53.9,34.7,30.14,WSW,257,10.0,23.0,48,0.00,,---,0.00,VWS V14.01,2013-01-19 14:21:00,
2013-01-19 08:23:00,54.0,34.8,30.14,SW,229,4.0,23.0,48,0.00,,---,0.00,VWS V14.01,2013-01-19 14:23:00,
2013-01-19 08:25:00,54.2,34.4,30.14,WNW,283,18.0,23.0,47,0.00,,---,0.00,VWS V14.01,2013-01-19 14:25:00,
2013-01-19 08:28:00,54.3,35.0,30.14,WSW,254,14.0,23.0,48,0.00,,---,0.00,VWS V14.01,2013-01-19 14:28:00,
2013-01-19 08:30:00,54.4,35.1,30.14,WSW,253,12.0,23.0,48,0.00,,---,0.00,VWS V14.01,2013-01-19 14:30:00,
2013-01-19 08:31:00,54.5,34.7,30.14,West,262,12.0,17.0,47,0.00,,---,0.00,VWS V14.01,2013-01-19 14:31:00,
2013-01-19 08:34:00,54.6,34.8,30.14,West,261,19.0,21.0,47,0.00,,---,0.00,VWS V14.01,2013-01-19 14:34:00,
2013-01-19 08:36:00,54.7,34.9,30.14,WSW,242,15.0,21.0,47,0.00,,---,0.00,VWS V14.01,2013-01-19 14:36:00,
2013-01-19 08:38:00,54.8,35.0,30.14,West,263,18.0,21.0,47,0.00,,---,0.00,VWS V14.01,2013-01-19 14:38:00,
2013-01-19 08:40:00,54.9,34.5,30.14,West,261,19.0,21.0,46,0.00,,---,0.00,VWS V14.01,2013-01-19 14:40:00,
2013-01-19 08:42:00,54.9,34.5,30.14,WSW,252,25.0,27.0,46,0.00,,---,0.00,VWS V14.01,2013-01-19 14:42:00,
2013-01-19 08:44:00,54.9,34.5,30.14,WSW,257,20.0,27.0,46,0.00,,---,0.00,VWS V14.01,2013-01-19 14:44:00,
2013-01-19 08:46:00,54.9,34.5,30.14,WSW,252,19.0,27.0,46,0.00,,---,0.00,VWS V14.01,2013-01-19 14:46:00,
2013-01-19 08:48:00,55.0,34.6,30.14,WSW,254,19.0,27.0,46,0.00,,---,0.00,VWS V14.01,2013-01-19 14:48:00,
2013-01-19 08:50:00,55.0,34.6,30.14,West,259,18.0,27.0,46,0.00,,---,0.00,VWS V14.01,2013-01-19 14:50:00,
2013-01-19 08:52:00,55.1,34.7,30.14,WSW,243,21.0,28.0,46,0.00,,---,0.00,VWS V14.01,2013-01-19 14:52:00,
2013-01-19 08:53:00,55.1,34.7,30.14,WSW,247,18.0,28.0,46,0.00,,---,0.00,VWS V14.01,2013-01-19 14:53:00,
2013-01-19 08:56:00,55.1,34.7,30.14,WSW,250,14.0,28.0,46,0.00,,---,0.00,VWS V14.01,2013-01-19 14:56:00,
2013-01-19 08:58:00,55.2,34.8,30.13,WSW,244,17.0,28.0,46,0.00,,---,0.00,VWS V14.01,2013-01-19 14:58:00,
2013-01-19 09:00:00,55.3,34.3,30.14,WSW,252,18.0,28.0,45,0.00,,---,0.00,VWS V14.01,2013-01-19 15:00:00,
2013-01-19 09:02:00,55.4,35.0,30.13,WSW,238,17.0,22.0,46,0.00,,---,0.00,VWS V14.01,2013-01-19 15:02:00,
2013-01-19 09:04:00,55.5,34.5,30.13,SW,232,17.0,22.0,45,0.00,,---,0.00,VWS V14.01,2013-01-19 15:04:00,
2013-01-19 09:06:00,55.6,34.6,30.13,WSW,240,18.0,22.0,45,0.00,,---,0.00,VWS V14.01,2013-01-19 15:06:00,
2013-01-19 09:08:00,55.7,34.7,30.13,SW,236,15.0,22.0,45,0.00,,---,0.00,VWS V14.01,2013-01-19 15:08:00,
2013-01-19 09:10:00,55.9,34.9,30.12,WSW,240,17.0,22.0,45,0.00,,---,0.00,VWS V14.01,2013-01-19 15:10:00,
2013-01-19 09:12:00,55.9,34.9,30.12,WSW,242,17.0,24.0,45,0.00,,---,0.00,VWS V14.01,2013-01-19 15:12:00,
2013-01-19 09:14:00,56.0,35.0,30.12,West,268,22.0,25.0,45,0.00,,---,0.00,VWS V14.01,2013-01-19 15:14:00,
2013-01-19 09:16:00,56.1,35.1,30.12,West,260,20.0,25.0,45,0.00,,---,0.00,VWS V14.01,2013-01-19 15:16:00,
2013-01-19 09:18:00,56.2,34.6,30.12,West,261,11.0,25.0,44,0.00,,---,0.00,VWS V14.01,2013-01-19 15:18:00,
2013-01-19 09:20:00,56.3,34.7,30.12,WSW,246,11.0,25.0,44,0.00,,---,0.00,VWS V14.01,2013-01-19 15:20:00,
2013-01-19 09:22:00,56.5,34.9,30.12,WSW,245,15.0,25.0,44,0.00,,---,0.00,VWS V14.01,2013-01-19 15:22:00,
2013-01-19 09:24:00,56.6,35.0,30.12,WSW,245,15.0,25.0,44,0.00,,---,0.00,VWS V14.01,2013-01-19 15:24:00,
2013-01-19 09:26:00,56.8,35.1,30.12,WSW,256,11.0,25.0,44,0.00,,---,0.00,VWS V14.01,2013-01-19 15:26:00,
2013-01-19 09:28:00,56.9,35.2,30.12,WSW,244,7.0,25.0,44,0.00,,---,0.00,VWS V14.01,2013-01-19 15:28:00,
2013-01-19 09:30:00,57.0,34.7,30.12,SW,227,14.0,25.0,43,0.00,,---,0.00,VWS V14.01,2013-01-19 15:30:00,
2013-01-19 09:32:00,57.1,35.4,30.11,WSW,244,8.0,16.0,44,0.00,,---,0.00,VWS V14.01,2013-01-19 15:32:00,
2013-01-19 09:34:00,57.2,34.9,30.11,WSW,258,21.0,21.0,43,0.00,,---,0.00,VWS V14.01,2013-01-19 15:34:00,
2013-01-19 09:39:00,57.4,35.1,30.11,WSW,243,13.0,21.0,43,0.00,,---,0.00,VWS V14.01,2013-01-19 15:39:00,
2013-01-19 09:43:00,57.6,35.3,30.11,WSW,257,15.0,21.0,43,0.00,,---,0.00,VWS V14.01,2013-01-19 15:43:00,
2013-01-19 09:45:00,57.7,35.4,30.11,West,264,14.0,24.0,43,0.00,,---,0.00,VWS V14.01,2013-01-19 15:45:00,
2013-01-19 09:47:00,57.9,35.6,30.11,WSW,254,19.0,24.0,43,0.00,,---,0.00,VWS V14.01,2013-01-19 15:47:00,
2013-01-19 09:51:00,58.1,35.2,30.10,WSW,252,17.0,24.0,42,0.00,,---,0.00,VWS V14.01,2013-01-19 15:51:00,
2013-01-19 09:53:00,58.2,35.2,30.10,WSW,255,18.0,24.0,42,0.00,,---,0.00,VWS V14.01,2013-01-19 15:53:00,
2013-01-19 09:56:00,58.4,35.4,30.10,WSW,239,12.0,24.0,42,0.00,,---,0.00,VWS V14.01,2013-01-19 15:56:00,
2013-01-19 09:58:00,58.6,35.6,30.10,West,261,18.0,24.0,42,0.00,,---,0.00,VWS V14.01,2013-01-19 15:58:00,
2013-01-19 10:00:00,58.7,35.7,30.10,WSW,240,24.0,24.0,42,0.00,,---,0.00,VWS V14.01,2013-01-19 16:00:00,
2013-01-19 10:04:00,58.8,35.2,30.10,WSW,244,21.0,28.0,41,0.00,,---,0.00,VWS V14.01,2013-01-19 16:04:00,
2013-01-19 10:06:00,58.7,35.1,30.09,SW,223,17.0,28.0,41,0.00,,---,0.00,VWS V14.01,2013-01-19 16:06:00,
2013-01-19 10:08:00,58.7,35.7,30.09,WSW,255,17.0,28.0,42,0.00,,---,0.00,VWS V14.01,2013-01-19 16:08:00,
2013-01-19 10:13:00,59.0,35.3,30.09,WSW,257,18.0,28.0,41,0.00,,---,0.00,VWS V14.01,2013-01-19 16:13:00,
2013-01-19 10:17:00,59.3,35.0,30.09,WSW,254,14.0,28.0,40,0.00,,---,0.00,VWS V14.01,2013-01-19 16:17:00,
2013-01-19 10:19:00,59.3,35.0,30.09,WSW,257,14.0,28.0,40,0.00,,---,0.00,VWS V14.01,2013-01-19 16:19:00,
2013-01-19 10:21:00,59.3,35.6,30.09,West,268,18.0,28.0,41,0.00,,---,0.00,VWS V14.01,2013-01-19 16:21:00,
2013-01-19 10:23:00,59.3,35.0,30.08,WSW,243,18.0,28.0,40,0.00,,---,0.00,VWS V14.01,2013-01-19 16:23:00,
2013-01-19 10:25:00,59.2,35.5,30.08,WSW,238,22.0,28.0,41,0.00,,---,0.00,VWS V14.01,2013-01-19 16:25:00,
2013-01-19 10:30:00,59.2,35.5,30.08,WSW,257,14.0,28.0,41,0.00,,---,0.00,VWS V14.01,2013-01-19 16:30:00,
2013-01-19 10:32:00,59.2,35.5,30.08,WSW,242,24.0,24.0,41,0.00,,---,0.00,VWS V14.01,2013-01-19 16:32:00,
2013-01-19 10:34:00,59.3,35.6,30.08,WSW,246,20.0,24.0,41,0.00,,---,0.00,VWS V14.01,2013-01-19 16:34:00,
2013-01-19 10:36:00,59.3,35.6,30.08,WSW,257,18.0,24.0,41,0.00,,---,0.00,VWS V14.01,2013-01-19 16:36:00,
2013-01-19 10:38:00,59.4,35.7,30.08,WSW,242,14.0,24.0,41,0.00,,---,0.00,VWS V14.01,2013-01-19 16:38:00,
2013-01-19 10:40:00,59.4,35.7,30.08,WSW,256,19.0,24.0,41,0.00,,---,0.00,VWS V14.01,2013-01-19 16:40:00,
2013-01-19 10:47:00,59.7,35.4,30.07,WSW,250,13.0,24.0,40,0.00,,---,0.00,VWS V14.01,2013-01-19 16:47:00,
2013-01-19 10:49:00,60.0,35.6,30.07,WSW,256,25.0,25.0,40,0.00,,---,0.00,VWS V14.01,2013-01-19 16:49:00,
2013-01-19 10:51:00,60.1,35.7,30.07,WSW,252,13.0,25.0,40,0.00,,---,0.00,VWS V14.01,2013-01-19 16:51:00,
2013-01-19 10:53:00,60.2,35.2,30.07,West,265,21.0,25.0,39,0.00,,---,0.00,VWS V14.01,2013-01-19 16:53:00,
2013-01-19 10:55:00,60.2,35.8,30.06,West,261,17.0,25.0,40,0.00,,---,0.00,VWS V14.01,2013-01-19 16:55:00,
2013-01-19 10:57:00,60.2,35.8,30.07,West,263,19.0,25.0,40,0.00,,---,0.00,VWS V14.01,2013-01-19 16:57:00,
2013-01-19 10:59:00,60.2,35.8,30.06,WSW,249,13.0,25.0,40,0.00,,---,0.00,VWS V14.01,2013-01-19 16:59:00,
2013-01-19 11:00:00,60.2,35.8,30.06,West,265,13.0,25.0,40,0.00,,---,0.00,VWS V14.01,2013-01-19 17:00:00,
2013-01-19 11:06:00,60.5,35.4,30.06,WSW,244,21.0,27.0,39,0.00,,---,0.00,VWS V14.01,2013-01-19 17:06:00,
2013-01-19 11:08:00,60.5,35.4,30.06,SW,221,11.0,27.0,39,0.00,,---,0.00,VWS V14.01,2013-01-19 17:08:00,
2013-01-19 11:10:00,60.7,35.6,30.06,WSW,250,17.0,27.0,39,0.00,,---,0.00,VWS V14.01,2013-01-19 17:10:00,
2013-01-19 11:16:00,60.8,35.7,30.06,West,259,15.0,27.0,39,0.00,,---,0.00,VWS V14.01,2013-01-19 17:16:00,
2013-01-19 11:19:00,60.9,35.8,30.06,SW,232,16.0,27.0,39,0.00,,---,0.00,VWS V14.01,2013-01-19 17:19:00,
2013-01-19 11:21:00,61.0,35.9,30.06,WSW,249,5.0,27.0,39,0.00,,---,0.00,VWS V14.01,2013-01-19 17:21:00,
2013-01-19 11:23:00,61.2,36.1,30.06,West,264,18.0,27.0,39,0.00,,---,0.00,VWS V14.01,2013-01-19 17:23:00,
2013-01-19 11:25:00,61.3,35.5,30.06,West,259,24.0,27.0,38,0.00,,---,0.00,VWS V14.01,2013-01-19 17:25:00,
2013-01-19 11:27:00,61.3,35.5,30.06,SW,234,15.0,27.0,38,0.00,,---,0.00,VWS V14.01,2013-01-19 17:27:00,
2013-01-19 11:29:00,61.3,35.5,30.06,WSW,246,21.0,29.0,38,0.00,,---,0.00,VWS V14.01,2013-01-19 17:29:00,
2013-01-19 11:30:00,61.3,35.5,30.06,SW,236,17.0,29.0,38,0.00,,---,0.00,VWS V14.01,2013-01-19 17:30:00,
2013-01-19 11:31:00,61.3,35.5,30.06,WSW,242,17.0,20.0,38,0.00,,---,0.00,VWS V14.01,2013-01-19 17:31:00,
2013-01-19 11:38:00,61.3,35.5,30.05,West,259,22.0,22.0,38,0.00,,---,0.00,VWS V14.01,2013-01-19 17:38:00,
2013-01-19 11:45:00,61.6,36.4,30.05,WSW,251,11.0,22.0,39,0.00,,---,0.00,VWS V14.01,2013-01-19 17:45:00,
2013-01-19 11:49:00,61.8,35.3,30.05,WSW,240,18.0,27.0,37,0.00,,---,0.00,VWS V14.01,2013-01-19 17:49:00,
2013-01-19 11:51:00,61.6,35.8,30.05,WSW,252,18.0,27.0,38,0.00,,---,0.00,VWS V14.01,2013-01-19 17:51:00,
2013-01-19 11:53:00,61.6,35.1,30.05,West,263,17.0,27.0,37,0.00,,---,0.00,VWS V14.01,2013-01-19 17:53:00,
2013-01-19 11:55:00,61.6,35.8,30.04,West,259,11.0,27.0,38,0.00,,---,0.00,VWS V14.01,2013-01-19 17:55:00,
2013-01-19 11:59:00,61.8,36.0,30.04,West,261,8.0,27.0,38,0.00,,---,0.00,VWS V14.01,2013-01-19 17:59:00,
2013-01-19 12:00:00,61.8,36.0,30.04,WSW,257,13.0,27.0,38,0.00,,---,0.00,VWS V14.01,2013-01-19 18:00:00,
2013-01-19 12:01:00,61.8,36.0,30.04,WSW,252,17.0,22.0,38,0.00,,---,0.00,VWS V14.01,2013-01-19 18:01:00,
2013-01-19 12:03:00,62.0,35.5,30.04,WSW,240,18.0,22.0,37,0.00,,---,0.00,VWS V14.01,2013-01-19 18:03:00,
2013-01-19 12:06:00,62.1,35.5,30.04,WSW,251,15.0,22.0,37,0.00,,---,0.00,VWS V14.01,2013-01-19 18:06:00,
2013-01-19 12:08:00,62.1,35.5,30.04,WSW,249,15.0,22.0,37,0.00,,---,0.00,VWS V14.01,2013-01-19 18:08:00,
2013-01-19 12:10:00,62.1,35.5,30.04,WSW,252,15.0,24.0,37,0.00,,---,0.00,VWS V14.01,2013-01-19 18:10:00,
2013-01-19 12:17:00,62.1,34.8,30.04,WSW,246,15.0,24.0,36,0.00,,---,0.00,VWS V14.01,2013-01-19 18:17:00,
2013-01-19 12:19:00,62.2,34.9,30.03,WSW,238,16.0,24.0,36,0.00,,---,0.00,VWS V14.01,2013-01-19 18:19:00,
2013-01-19 12:21:00,62.2,34.9,30.04,WSW,243,13.0,24.0,36,0.00,,---,0.00,VWS V14.01,2013-01-19 18:21:00,
2013-01-19 12:23:00,62.2,34.9,30.03,WSW,254,20.0,24.0,36,0.00,,---,0.00,VWS V14.01,2013-01-19 18:23:00,
2013-01-19 12:25:00,62.2,35.6,30.03,WSW,254,15.0,24.0,37,0.00,,---,0.00,VWS V14.01,2013-01-19 18:25:00,
2013-01-19 12:27:00,62.3,35.7,30.04,WSW,252,11.0,24.0,37,0.00,,---,0.00,VWS V14.01,2013-01-19 18:27:00,
2013-01-19 12:29:00,62.3,35.0,30.04,WSW,255,8.0,24.0,36,0.00,,---,0.00,VWS V14.01,2013-01-19 18:29:00,
2013-01-19 12:30:00,62.3,35.0,30.04,West,260,14.0,24.0,36,0.00,,---,0.00,VWS V14.01,2013-01-19 18:30:00,
2013-01-19 12:33:00,62.3,35.7,30.04,WSW,246,18.0,19.0,37,0.00,,---,0.00,VWS V14.01,2013-01-19 18:33:00,
2013-01-19 12:35:00,62.4,35.1,30.03,West,261,22.0,22.0,36,0.00,,---,0.00,VWS V14.01,2013-01-19 18:35:00,
2013-01-19 12:40:00,62.3,35.0,30.03,WNW,285,14.0,24.0,36,0.00,,---,0.00,VWS V14.01,2013-01-19 18:40:00,
2013-01-19 12:42:00,62.3,35.0,30.04,West,259,14.0,24.0,36,0.00,,---,0.00,VWS V14.01,2013-01-19 18:42:00,
2013-01-19 12:44:00,62.4,35.1,30.04,WSW,250,17.0,27.0,36,0.00,,---,0.00,VWS V14.01,2013-01-19 18:44:00,
2013-01-19 12:46:00,62.4,35.1,30.03,SW,229,14.0,27.0,36,0.00,,---,0.00,VWS V14.01,2013-01-19 18:46:00,
2013-01-19 12:50:00,62.5,35.2,30.03,WSW,257,21.0,27.0,36,0.00,,---,0.00,VWS V14.01,2013-01-19 18:50:00,
2013-01-19 12:55:00,62.5,35.9,30.03,WSW,242,13.0,27.0,37,0.00,,---,0.00,VWS V14.01,2013-01-19 18:55:00,
2013-01-19 12:57:00,62.6,35.3,30.03,West,263,17.0,27.0,36,0.00,,---,0.00,VWS V14.01,2013-01-19 18:57:00,
2013-01-19 13:00:00,62.6,35.3,30.03,WSW,258,20.0,27.0,36,0.00,,---,0.00,VWS V14.01,2013-01-19 19:00:00,
2013-01-19 13:01:00,62.6,35.3,30.03,WSW,254,14.0,23.0,36,0.00,,---,0.00,VWS V14.01,2013-01-19 19:01:00,
2013-01-19 13:05:00,62.6,35.3,30.03,West,268,14.0,23.0,36,0.00,,---,0.00,VWS V14.01,2013-01-19 19:05:00,
2013-01-19 13:07:00,62.7,35.4,30.03,West,261,18.0,23.0,36,0.00,,---,0.00,VWS V14.01,2013-01-19 19:07:00,
2013-01-19 13:09:00,62.8,35.5,30.03,WSW,249,19.0,24.0,36,0.00,,---,0.00,VWS V14.01,2013-01-19 19:09:00,
2013-01-19 13:12:00,62.8,35.5,30.03,WSW,250,18.0,24.0,36,0.00,,---,0.00,VWS V14.01,2013-01-19 19:12:00,
2013-01-19 13:13:00,62.8,34.8,30.03,WSW,238,15.0,24.0,35,0.00,,---,0.00,VWS V14.01,2013-01-19 19:13:00,
2013-01-19 13:20:00,62.7,34.7,30.03,WSW,254,13.0,24.0,35,0.00,,---,0.00,VWS V14.01,2013-01-19 19:20:00,
2013-01-19 13:22:00,62.7,34.7,30.04,West,265,18.0,24.0,35,0.00,,---,0.00,VWS V14.01,2013-01-19 19:22:00,
2013-01-19 13:24:00,62.7,35.4,30.04,West,267,17.0,24.0,36,0.00,,---,0.00,VWS V14.01,2013-01-19 19:24:00,
2013-01-19 13:26:00,62.7,35.4,30.03,WSW,255,15.0,24.0,36,0.00,,---,0.00,VWS V14.01,2013-01-19 19:26:00,
2013-01-19 13:28:00,62.7,35.4,30.03,West,281,16.0,24.0,36,0.00,,---,0.00,VWS V14.01,2013-01-19 19:28:00,
2013-01-19 13:30:00,62.7,35.4,30.03,WSW,238,15.0,24.0,36,0.00,,---,0.00,VWS V14.01,2013-01-19 19:30:00,
2013-01-19 13:32:00,62.7,34.7,30.03,WSW,253,15.0,19.0,35,0.00,,---,0.00,VWS V14.01,2013-01-19 19:32:00,
2013-01-19 13:39:00,62.8,35.5,30.03,WSW,252,11.0,19.0,36,0.00,,---,0.00,VWS V14.01,2013-01-19 19:39:00,
2013-01-19 13:41:00,62.8,35.5,30.03,WSW,250,15.0,20.0,36,0.00,,---,0.00,VWS V14.01,2013-01-19 19:41:00,
2013-01-19 13:43:00,62.7,35.4,30.03,SW,235,16.0,21.0,36,0.00,,---,0.00,VWS V14.01,2013-01-19 19:43:00,
2013-01-19 13:45:00,62.7,35.4,30.03,WSW,257,15.0,21.0,36,0.00,,---,0.00,VWS V14.01,2013-01-19 19:45:00,
2013-01-19 13:48:00,62.7,35.4,30.03,WSW,242,21.0,24.0,36,0.00,,---,0.00,VWS V14.01,2013-01-19 19:48:00,
2013-01-19 13:50:00,62.7,35.4,30.03,WSW,244,11.0,24.0,36,0.00,,---,0.00,VWS V14.01,2013-01-19 19:50:00,
2013-01-19 13:54:00,62.5,35.2,30.04,West,260,15.0,24.0,36,0.00,,---,0.00,VWS V14.01,2013-01-19 19:54:00,
2013-01-19 13:56:00,62.4,35.1,30.04,SW,236,15.0,24.0,36,0.00,,---,0.00,VWS V14.01,2013-01-19 19:56:00,
2013-01-19 13:58:00,62.4,35.1,30.04,WSW,256,11.0,24.0,36,0.00,,---,0.00,VWS V14.01,2013-01-19 19:58:00,
2013-01-19 14:00:00,62.4,35.1,30.04,WSW,251,11.0,24.0,36,0.00,,---,0.00,VWS V14.01,2013-01-19 20:00:00,
2013-01-19 14:02:00,62.4,35.1,30.04,WSW,253,11.0,17.0,36,0.00,,---,0.00,VWS V14.01,2013-01-19 20:02:00,
2013-01-19 14:04:00,62.4,35.1,30.04,WSW,257,15.0,21.0,36,0.00,,---,0.00,VWS V14.01,2013-01-19 20:04:00,
2013-01-19 14:11:00,62.2,34.9,30.04,WSW,246,19.0,24.0,36,0.00,,---,0.00,VWS V14.01,2013-01-19 20:11:00,
2013-01-19 14:13:00,62.2,34.9,30.04,WSW,252,17.0,24.0,36,0.00,,---,0.00,VWS V14.01,2013-01-19 20:13:00,
2013-01-19 14:15:00,62.1,34.8,30.04,WSW,244,20.0,24.0,36,0.00,,---,0.00,VWS V14.01,2013-01-19 20:15:00,
2013-01-19 14:17:00,62.1,35.5,30.04,West,263,17.0,24.0,37,0.00,,---,0.00,VWS V14.01,2013-01-19 20:17:00,
2013-01-19 14:19:00,62.1,35.5,30.04,WSW,250,11.0,24.0,37,0.00,,---,0.00,VWS V14.01,2013-01-19 20:19:00,
2013-01-19 14:21:00,62.1,35.5,30.03,WSW,257,12.0,24.0,37,0.00,,---,0.00,VWS V14.01,2013-01-19 20:21:00,
2013-01-19 14:25:00,62.1,35.5,30.04,WSW,253,15.0,24.0,37,0.00,,---,0.00,VWS V14.01,2013-01-19 20:25:00,
2013-01-19 14:27:00,62.1,35.5,30.03,WSW,255,21.0,24.0,37,0.00,,---,0.00,VWS V14.01,2013-01-19 20:27:00,
2013-01-19 14:30:00,62.0,35.5,30.03,WSW,248,12.0,24.0,37,0.00,,---,0.00,VWS V14.01,2013-01-19 20:30:00,
2013-01-19 14:32:00,62.0,35.5,30.03,WSW,250,13.0,19.0,37,0.00,,---,0.00,VWS V14.01,2013-01-19 20:32:00,
2013-01-19 14:34:00,62.0,36.1,30.03,WSW,249,5.0,19.0,38,0.00,,---,0.00,VWS V14.01,2013-01-19 20:34:00,
2013-01-19 14:36:00,62.1,36.2,30.03,SW,236,11.0,19.0,38,0.00,,---,0.00,VWS V14.01,2013-01-19 20:36:00,
2013-01-19 14:40:00,62.1,35.5,30.03,West,259,6.0,19.0,37,0.00,,---,0.00,VWS V14.01,2013-01-19 20:40:00,
2013-01-19 14:42:00,62.0,36.1,30.03,WSW,240,4.0,19.0,38,0.00,,---,0.00,VWS V14.01,2013-01-19 20:42:00,
2013-01-19 14:44:00,62.0,36.1,30.03,SW,229,6.0,19.0,38,0.00,,---,0.00,VWS V14.01,2013-01-19 20:44:00,
2013-01-19 14:46:00,62.1,36.2,30.03,SW,234,13.0,19.0,38,0.00,,---,0.00,VWS V14.01,2013-01-19 20:46:00,
2013-01-19 14:48:00,62.1,36.2,30.03,WSW,244,7.0,19.0,38,0.00,,---,0.00,VWS V14.01,2013-01-19 20:48:00,
2013-01-19 14:50:00,62.0,36.1,30.04,WSW,250,5.0,19.0,38,0.00,,---,0.00,VWS V14.01,2013-01-19 20:50:00,
2013-01-19 14:52:00,62.0,35.5,30.04,West,263,13.0,19.0,37,0.00,,---,0.00,VWS V14.01,2013-01-19 20:52:00,
2013-01-19 14:57:00,61.8,36.0,30.04,SSW,212,10.0,21.0,38,0.00,,---,0.00,VWS V14.01,2013-01-19 20:57:00,
2013-01-19 14:59:00,61.7,35.9,30.04,SW,232,10.0,21.0,38,0.00,,---,0.00,VWS V14.01,2013-01-19 20:59:00,
2013-01-19 15:00:00,61.7,35.9,30.04,WSW,246,19.0,21.0,38,0.00,,---,0.00,VWS V14.01,2013-01-19 21:00:00,
2013-01-19 15:01:00,61.6,35.1,30.04,WSW,253,14.0,20.0,37,0.00,,---,0.00,VWS V14.01,2013-01-19 21:01:00,
2013-01-19 15:03:00,61.5,35.7,30.04,WSW,245,13.0,20.0,38,0.00,,---,0.00,VWS V14.01,2013-01-19 21:03:00,
2013-01-19 15:05:00,61.4,35.6,30.04,West,259,15.0,20.0,38,0.00,,---,0.00,VWS V14.01,2013-01-19 21:05:00,
2013-01-19 15:07:00,61.3,35.5,30.04,WSW,254,14.0,20.0,38,0.00,,---,0.00,VWS V14.01,2013-01-19 21:07:00,
2013-01-19 15:09:00,61.3,35.5,30.04,WSW,254,7.0,20.0,38,0.00,,---,0.00,VWS V14.01,2013-01-19 21:09:00,
2013-01-19 15:11:00,61.1,35.3,30.05,WSW,249,6.0,20.0,38,0.00,,---,0.00,VWS V14.01,2013-01-19 21:11:00,
2013-01-19 15:16:00,61.0,35.9,30.04,SW,230,3.0,20.0,39,0.00,,---,0.00,VWS V14.01,2013-01-19 21:16:00,
2013-01-19 15:18:00,61.0,35.9,30.05,WSW,241,4.0,20.0,39,0.00,,---,0.00,VWS V14.01,2013-01-19 21:18:00,
2013-01-19 15:27:00,60.7,35.6,30.05,WSW,254,10.0,20.0,39,0.00,,---,0.00,VWS V14.01,2013-01-19 21:27:00,
2013-01-19 15:29:00,60.6,36.2,30.05,SW,236,2.0,20.0,40,0.00,,---,0.00,VWS V14.01,2013-01-19 21:29:00,
2013-01-19 15:30:00,60.5,36.1,30.05,WSW,248,10.0,20.0,40,0.00,,---,0.00,VWS V14.01,2013-01-19 21:30:00,
2013-01-19 15:33:00,60.3,35.9,30.05,SW,234,5.0,10.0,40,0.00,,---,0.00,VWS V14.01,2013-01-19 21:33:00,
2013-01-19 15:35:00,60.2,35.8,30.05,WSW,242,2.0,10.0,40,0.00,,---,0.00,VWS V14.01,2013-01-19 21:35:00,
2013-01-19 15:40:00,59.9,35.5,30.05,SW,236,4.0,10.0,40,0.00,,---,0.00,VWS V14.01,2013-01-19 21:40:00,
2013-01-19 15:42:00,59.8,35.5,30.05,SW,229,5.0,10.0,40,0.00,,---,0.00,VWS V14.01,2013-01-19 21:42:00,
2013-01-19 15:44:00,59.6,35.9,30.05,SW,228,4.0,10.0,41,0.00,,---,0.00,VWS V14.01,2013-01-19 21:44:00,
2013-01-19 15:48:00,59.4,35.7,30.05,SW,223,3.0,10.0,41,0.00,,---,0.00,VWS V14.01,2013-01-19 21:48:00,
2013-01-19 15:50:00,59.2,36.1,30.05,WSW,242,7.0,10.0,42,0.00,,---,0.00,VWS V14.01,2013-01-19 21:50:00,
2013-01-19 15:54:00,59.0,36.0,30.04,SW,234,8.0,12.0,42,0.00,,---,0.00,VWS V14.01,2013-01-19 21:54:00,
2013-01-19 15:56:00,58.9,35.9,30.05,SW,232,5.0,12.0,42,0.00,,---,0.00,VWS V14.01,2013-01-19 21:56:00,
2013-01-19 16:00:00,58.8,35.8,30.05,SW,221,5.0,12.0,42,0.00,,---,0.00,VWS V14.01,2013-01-19 22:00:00,
2013-01-19 16:01:00,58.7,35.7,30.05,SW,229,4.0,8.0,42,0.00,,---,0.00,VWS V14.01,2013-01-19 22:01:00,
2013-01-19 16:05:00,58.6,36.2,30.05,SW,228,6.0,8.0,43,0.00,,---,0.00,VWS V14.01,2013-01-19 22:05:00,
2013-01-19 16:07:00,58.5,36.1,30.05,SW,224,3.0,10.0,43,0.00,,---,0.00,VWS V14.01,2013-01-19 22:07:00,
2013-01-19 16:12:00,58.4,36.0,30.05,SW,232,6.0,13.0,43,0.00,,---,0.00,VWS V14.01,2013-01-19 22:12:00,
2013-01-19 16:14:00,58.4,36.0,30.05,WSW,240,8.0,13.0,43,0.00,,---,0.00,VWS V14.01,2013-01-19 22:14:00,
2013-01-19 16:16:00,58.4,36.0,30.05,WSW,242,4.0,13.0,43,0.00,,---,0.00,VWS V14.01,2013-01-19 22:16:00,
2013-01-19 16:20:00,58.2,35.8,30.06,SW,229,2.0,13.0,43,0.00,,---,0.00,VWS V14.01,2013-01-19 22:20:00,
2013-01-19 16:25:00,58.0,36.2,30.06,SW,232,3.0,13.0,44,0.00,,---,0.00,VWS V14.01,2013-01-19 22:25:00,
2013-01-19 16:27:00,57.9,36.1,30.06,SW,232,2.0,13.0,44,0.00,,---,0.00,VWS V14.01,2013-01-19 22:27:00,
2013-01-19 16:29:00,57.8,36.0,30.06,SW,232,3.0,13.0,44,0.00,,---,0.00,VWS V14.01,2013-01-19 22:29:00,
2013-01-19 16:30:00,57.7,36.0,30.06,SW,232,2.0,13.0,44,0.00,,---,0.00,VWS V14.01,2013-01-19 22:30:00,
2013-01-19 16:31:00,57.6,35.9,30.06,SW,232,2.0,2.0,44,0.00,,---,0.00,VWS V14.01,2013-01-19 22:31:00,
2013-01-19 16:33:00,57.5,36.3,30.06,SW,232,3.0,3.0,45,0.00,,---,0.00,VWS V14.01,2013-01-19 22:33:00,
2013-01-19 16:35:00,57.3,36.2,30.06,SW,232,2.0,4.0,45,0.00,,---,0.00,VWS V14.01,2013-01-19 22:35:00,
2013-01-19 16:36:00,57.2,36.1,30.06,WSW,240,2.0,7.0,45,0.00,,---,0.00,VWS V14.01,2013-01-19 22:36:00,
2013-01-19 16:39:00,57.2,36.1,30.06,WSW,238,4.0,7.0,45,0.00,,---,0.00,VWS V14.01,2013-01-19 22:39:00,
2013-01-19 16:45:00,57.0,35.9,30.07,WSW,238,4.0,7.0,45,0.00,,---,0.00,VWS V14.01,2013-01-19 22:45:00,
2013-01-19 16:47:00,56.9,36.3,30.07,WSW,240,6.0,7.0,46,0.00,,---,0.00,VWS V14.01,2013-01-19 22:47:00,
2013-01-19 16:50:00,56.9,36.3,30.07,WSW,248,3.0,7.0,46,0.00,,---,0.00,VWS V14.01,2013-01-19 22:50:00,
2013-01-19 16:52:00,56.9,36.3,30.07,WSW,248,3.0,7.0,46,0.00,,---,0.00,VWS V14.01,2013-01-19 22:52:00,
2013-01-19 16:54:00,56.8,36.3,30.08,WSW,252,3.0,7.0,46,0.00,,---,0.00,VWS V14.01,2013-01-19 22:54:00,
2013-01-19 17:00:00,56.2,36.3,30.08,WSW,252,0.0,7.0,47,0.00,,---,0.00,VWS V14.01,2013-01-19 23:00:00,
2013-01-19 17:05:00,55.8,35.9,30.08,WSW,252,0.0,0.0,47,0.00,,---,0.00,VWS V14.01,2013-01-19 23:05:00,
2013-01-19 17:07:00,55.7,36.3,30.08,WSW,252,0.0,0.0,48,0.00,,---,0.00,VWS V14.01,2013-01-19 23:07:00,
2013-01-19 17:09:00,55.6,36.2,30.08,WSW,252,0.0,0.0,48,0.00,,---,0.00,VWS V14.01,2013-01-19 23:09:00,
2013-01-19 17:11:00,55.4,36.1,30.09,WSW,252,0.0,0.0,48,0.00,,---,0.00,VWS V14.01,2013-01-19 23:11:00,
2013-01-19 17:13:00,55.3,36.0,30.09,WSW,252,0.0,0.0,48,0.00,,---,0.00,VWS V14.01,2013-01-19 23:13:00,
2013-01-19 17:15:00,55.2,36.4,30.09,WSW,252,0.0,0.0,49,0.00,,---,0.00,VWS V14.01,2013-01-19 23:15:00,
2013-01-19 17:19:00,54.9,36.1,30.09,WSW,252,0.0,0.0,49,0.00,,---,0.00,VWS V14.01,2013-01-19 23:19:00,
2013-01-19 17:22:00,54.8,36.0,30.09,WSW,252,0.0,0.0,49,0.00,,---,0.00,VWS V14.01,2013-01-19 23:22:00,
2013-01-19 17:23:00,54.7,35.9,30.09,WSW,252,0.0,0.0,49,0.00,,---,0.00,VWS V14.01,2013-01-19 23:23:00,
2013-01-19 17:26:00,54.6,36.3,30.10,WSW,252,0.0,0.0,50,0.00,,---,0.00,VWS V14.01,2013-01-19 23:26:00,
2013-01-19 17:28:00,54.5,36.3,30.10,WSW,252,0.0,0.0,50,0.00,,---,0.00,VWS V14.01,2013-01-19 23:28:00,
2013-01-19 17:30:00,54.4,36.2,30.10,WSW,252,0.0,0.0,50,0.00,,---,0.00,VWS V14.01,2013-01-19 23:30:00,
2013-01-19 17:34:00,54.1,36.4,30.10,WSW,252,0.0,0.0,51,0.00,,---,0.00,VWS V14.01,2013-01-19 23:34:00,
2013-01-19 17:39:00,53.9,36.2,30.10,WSW,252,0.0,0.0,51,0.00,,---,0.00,VWS V14.01,2013-01-19 23:39:00,
2013-01-19 17:43:00,53.6,36.4,30.10,WSW,252,0.0,0.0,52,0.00,,---,0.00,VWS V14.01,2013-01-19 23:43:00,
2013-01-19 17:45:00,53.5,36.3,30.10,WSW,252,0.0,0.0,52,0.00,,---,0.00,VWS V14.01,2013-01-19 23:45:00,
2013-01-19 17:49:00,53.5,36.3,30.10,WSW,252,0.0,0.0,52,0.00,,---,0.00,VWS V14.01,2013-01-19 23:49:00,
2013-01-19 17:51:00,53.5,36.3,30.10,WSW,252,2.0,3.0,52,0.00,,---,0.00,VWS V14.01,2013-01-19 23:51:00,
2013-01-19 17:53:00,53.5,36.3,30.10,WSW,252,3.0,4.0,52,0.00,,---,0.00,VWS V14.01,2013-01-19 23:53:00,
2013-01-19 17:56:00,53.6,36.4,30.10,WSW,252,3.0,4.0,52,0.00,,---,0.00,VWS V14.01,2013-01-19 23:56:00,
2013-01-19 18:00:00,53.8,36.6,30.10,WSW,250,3.0,4.0,52,0.00,,---,0.00,VWS V14.01,2013-01-20 00:00:00,
2013-01-19 18:02:00,53.9,36.7,30.11,WSW,250,3.0,4.0,52,0.00,,---,0.00,VWS V14.01,2013-01-20 00:02:00,
2013-01-19 18:06:00,54.0,36.8,30.11,WSW,250,2.0,4.0,52,0.00,,---,0.00,VWS V14.01,2013-01-20 00:06:00,
2013-01-19 18:08:00,54.0,36.8,30.11,WSW,250,2.0,4.0,52,0.00,,---,0.00,VWS V14.01,2013-01-20 00:08:00,
2013-01-19 18:17:00,53.8,36.6,30.11,WSW,250,1.0,4.0,52,0.00,,---,0.00,VWS V14.01,2013-01-20 00:17:00,
2013-01-19 18:24:00,53.4,36.2,30.11,WSW,250,2.0,4.0,52,0.00,,---,0.00,VWS V14.01,2013-01-20 00:24:00,
2013-01-19 18:26:00,53.3,36.6,30.12,WSW,250,1.0,4.0,53,0.00,,---,0.00,VWS V14.01,2013-01-20 00:26:00,
2013-01-19 18:28:00,53.3,36.6,30.11,WSW,250,2.0,4.0,53,0.00,,---,0.00,VWS V14.01,2013-01-20 00:28:00,
2013-01-19 18:30:00,53.3,36.6,30.12,WSW,250,2.0,3.0,53,0.00,,---,0.00,VWS V14.01,2013-01-20 00:30:00,
2013-01-19 18:32:00,53.3,36.6,30.12,WSW,250,1.0,4.0,53,0.00,,---,0.00,VWS V14.01,2013-01-20 00:32:00,
2013-01-19 18:34:00,53.3,36.6,30.12,WSW,250,0.0,4.0,53,0.00,,---,0.00,VWS V14.01,2013-01-20 00:34:00,
2013-01-19 18:36:00,53.3,36.6,30.12,WSW,250,1.0,4.0,53,0.00,,---,0.00,VWS V14.01,2013-01-20 00:36:00,
2013-01-19 18:38:00,53.2,36.5,30.12,WSW,250,1.0,4.0,53,0.00,,---,0.00,VWS V14.01,2013-01-20 00:38:00,
2013-01-19 18:40:00,53.1,36.4,30.12,WSW,250,1.0,4.0,53,0.00,,---,0.00,VWS V14.01,2013-01-20 00:40:00,
2013-01-19 18:45:00,52.9,36.2,30.12,WSW,250,1.0,4.0,53,0.00,,---,0.00,VWS V14.01,2013-01-20 00:45:00,
2013-01-19 18:47:00,52.7,36.1,30.12,WSW,250,0.0,4.0,53,0.00,,---,0.00,VWS V14.01,2013-01-20 00:47:00,
2013-01-19 18:49:00,52.6,36.5,30.12,WSW,250,0.0,4.0,54,0.00,,---,0.00,VWS V14.01,2013-01-20 00:49:00,
2013-01-19 18:51:00,52.5,36.3,30.12,WSW,250,0.0,4.0,54,0.00,,---,0.00,VWS V14.01,2013-01-20 00:51:00,
2013-01-19 18:53:00,52.4,36.3,30.13,WSW,250,0.0,4.0,54,0.00,,---,0.00,VWS V14.01,2013-01-20 00:53:00,
2013-01-19 18:55:00,52.3,36.2,30.13,WSW,250,0.0,4.0,54,0.00,,---,0.00,VWS V14.01,2013-01-20 00:55:00,
2013-01-19 18:57:00,52.2,36.5,30.13,WSW,250,0.0,4.0,55,0.00,,---,0.00,VWS V14.01,2013-01-20 00:57:00,
2013-01-19 18:59:00,52.1,36.4,30.13,WSW,250,0.0,4.0,55,0.00,,---,0.00,VWS V14.01,2013-01-20 00:59:00,
2013-01-19 19:00:00,52.1,36.4,30.13,WSW,250,0.0,4.0,55,0.00,,---,0.00,VWS V14.01,2013-01-20 01:00:00,
2013-01-19 19:03:00,51.9,36.3,30.13,WSW,250,0.0,0.0,55,0.00,,---,0.00,VWS V14.01,2013-01-20 01:03:00,
2013-01-19 19:05:00,51.8,36.2,30.12,WSW,250,2.0,2.0,55,0.00,,---,0.00,VWS V14.01,2013-01-20 01:05:00,
2013-01-19 19:07:00,51.7,36.1,30.12,WSW,248,4.0,4.0,55,0.00,,---,0.00,VWS V14.01,2013-01-20 01:07:00,
2013-01-19 19:09:00,51.6,36.4,30.12,WSW,241,3.0,5.0,56,0.00,,---,0.00,VWS V14.01,2013-01-20 01:09:00,
2013-01-19 19:11:00,51.6,36.0,30.12,WSW,240,4.0,5.0,55,0.00,,---,0.00,VWS V14.01,2013-01-20 01:11:00,
2013-01-19 19:13:00,51.6,36.4,30.12,WSW,240,3.0,5.0,56,0.00,,---,0.00,VWS V14.01,2013-01-20 01:13:00,
2013-01-19 19:15:00,51.7,36.1,30.12,WSW,240,2.0,5.0,55,0.00,,---,0.00,VWS V14.01,2013-01-20 01:15:00,
2013-01-19 19:20:00,51.8,36.2,30.12,WSW,240,3.0,5.0,55,0.00,,---,0.00,VWS V14.01,2013-01-20 01:20:00,
2013-01-19 19:24:00,51.8,36.2,30.13,WSW,239,0.0,5.0,55,0.00,,---,0.00,VWS V14.01,2013-01-20 01:24:00,
2013-01-19 19:26:00,51.8,36.2,30.13,WSW,239,0.0,5.0,55,0.00,,---,0.00,VWS V14.01,2013-01-20 01:26:00,
2013-01-19 19:30:00,51.7,36.1,30.13,WSW,238,0.0,5.0,55,0.00,,---,0.00,VWS V14.01,2013-01-20 01:30:00,
2013-01-19 19:31:00,51.7,36.1,30.13,WSW,239,0.0,0.0,55,0.00,,---,0.00,VWS V14.01,2013-01-20 01:31:00,
2013-01-19 19:35:00,51.4,36.2,30.13,WSW,238,0.0,0.0,56,0.00,,---,0.00,VWS V14.01,2013-01-20 01:35:00,
2013-01-19 19:37:00,51.3,36.2,30.13,WSW,238,0.0,0.0,56,0.00,,---,0.00,VWS V14.01,2013-01-20 01:37:00,
2013-01-19 19:39:00,51.2,36.1,30.13,WSW,238,0.0,0.0,56,0.00,,---,0.00,VWS V14.01,2013-01-20 01:39:00,
2013-01-19 19:41:00,51.0,35.9,30.13,WSW,239,0.0,0.0,56,0.00,,---,0.00,VWS V14.01,2013-01-20 01:41:00,
2013-01-19 19:43:00,50.9,35.8,30.13,WSW,238,0.0,0.0,56,0.00,,---,0.00,VWS V14.01,2013-01-20 01:43:00,
2013-01-19 19:45:00,50.8,36.1,30.13,WSW,238,0.0,0.0,57,0.00,,---,0.00,VWS V14.01,2013-01-20 01:45:00,
2013-01-19 19:47:00,50.7,36.0,30.13,WSW,239,0.0,0.0,57,0.00,,---,0.00,VWS V14.01,2013-01-20 01:47:00,
2013-01-19 19:49:00,50.6,35.9,30.13,WSW,239,0.0,0.0,57,0.00,,---,0.00,VWS V14.01,2013-01-20 01:49:00,
2013-01-19 19:51:00,50.5,35.8,30.13,WSW,238,0.0,0.0,57,0.00,,---,0.00,VWS V14.01,2013-01-20 01:51:00,
2013-01-19 19:53:00,50.5,35.8,30.13,WSW,238,0.0,0.0,57,0.00,,---,0.00,VWS V14.01,2013-01-20 01:53:00,
2013-01-19 19:55:00,50.4,35.8,30.13,WSW,239,0.0,0.0,57,0.00,,---,0.00,VWS V14.01,2013-01-20 01:55:00,
2013-01-19 19:57:00,50.3,36.1,30.13,WSW,239,0.0,0.0,58,0.00,,---,0.00,VWS V14.01,2013-01-20 01:57:00,
2013-01-19 19:59:00,50.3,36.1,30.13,WSW,239,0.0,0.0,58,0.00,,---,0.00,VWS V14.01,2013-01-20 01:59:00,
2013-01-19 20:00:00,50.3,36.1,30.13,WSW,238,0.0,0.0,58,0.00,,---,0.00,VWS V14.01,2013-01-20 02:00:00,
2013-01-19 20:01:00,50.3,36.1,30.14,WSW,238,1.0,3.0,58,0.00,,---,0.00,VWS V14.01,2013-01-20 02:01:00,
2013-01-19 20:03:00,50.2,36.0,30.14,WSW,239,2.0,3.0,58,0.00,,---,0.00,VWS V14.01,2013-01-20 02:03:00,
2013-01-19 20:05:00,50.2,36.0,30.14,WSW,239,1.0,3.0,58,0.00,,---,0.00,VWS V14.01,2013-01-20 02:05:00,
2013-01-19 20:07:00,50.1,35.9,30.13,WSW,239,2.0,3.0,58,0.00,,---,0.00,VWS V14.01,2013-01-20 02:07:00,
2013-01-19 20:10:00,50.1,35.9,30.13,WSW,239,1.0,3.0,58,0.00,,---,0.00,VWS V14.01,2013-01-20 02:10:00,
2013-01-19 20:14:00,50.0,35.8,30.14,WSW,238,3.0,3.0,58,0.00,,---,0.00,VWS V14.01,2013-01-20 02:14:00,
2013-01-19 20:16:00,50.0,35.8,30.14,WSW,238,2.0,3.0,58,0.00,,---,0.00,VWS V14.01,2013-01-20 02:16:00,
2013-01-19 20:18:00,50.0,35.8,30.13,WSW,239,2.0,3.0,58,0.00,,---,0.00,VWS V14.01,2013-01-20 02:18:00,
2013-01-19 20:20:00,50.0,35.8,30.14,WSW,239,3.0,3.0,58,0.00,,---,0.00,VWS V14.01,2013-01-20 02:20:00,
2013-01-19 20:22:00,50.0,35.8,30.14,WSW,239,3.0,3.0,58,0.00,,---,0.00,VWS V14.01,2013-01-20 02:22:00,
2013-01-19 20:24:00,50.0,35.8,30.14,WSW,239,2.0,4.0,58,0.00,,---,0.00,VWS V14.01,2013-01-20 02:24:00,
2013-01-19 20:26:00,49.9,35.7,30.14,WSW,239,3.0,4.0,58,0.00,,---,0.00,VWS V14.01,2013-01-20 02:26:00,
2013-01-19 20:28:00,49.9,36.2,30.14,WSW,239,2.0,4.0,59,0.00,,---,0.00,VWS V14.01,2013-01-20 02:28:00,
2013-01-19 20:30:00,49.9,36.2,30.14,WSW,240,3.0,3.0,59,0.00,,---,0.00,VWS V14.01,2013-01-20 02:30:00,
2013-01-19 20:37:00,49.9,35.7,30.14,WSW,241,4.0,4.0,58,0.00,,---,0.00,VWS V14.01,2013-01-20 02:37:00,
2013-01-19 20:39:00,49.9,35.7,30.14,WSW,241,3.0,4.0,58,0.00,,---,0.00,VWS V14.01,2013-01-20 02:39:00,
2013-01-19 20:41:00,49.9,36.2,30.14,WSW,241,2.0,4.0,59,0.00,,---,0.00,VWS V14.01,2013-01-20 02:41:00,
2013-01-19 20:43:00,49.8,36.1,30.14,WSW,241,3.0,4.0,59,0.00,,---,0.00,VWS V14.01,2013-01-20 02:43:00,
2013-01-19 20:45:00,49.6,35.9,30.14,WSW,241,3.0,4.0,59,0.00,,---,0.00,VWS V14.01,2013-01-20 02:45:00,
2013-01-19 20:47:00,49.5,35.8,30.14,WSW,241,3.0,4.0,59,0.00,,---,0.00,VWS V14.01,2013-01-20 02:47:00,
2013-01-19 20:49:00,49.3,35.6,30.14,WSW,241,3.0,4.0,59,0.00,,---,0.00,VWS V14.01,2013-01-20 02:49:00,
2013-01-19 20:51:00,49.1,35.8,30.14,WSW,241,2.0,4.0,60,0.00,,---,0.00,VWS V14.01,2013-01-20 02:51:00,
2013-01-19 20:53:00,49.0,35.7,30.14,WSW,241,3.0,4.0,60,0.00,,---,0.00,VWS V14.01,2013-01-20 02:53:00,
2013-01-19 20:55:00,48.9,35.6,30.14,WSW,241,2.0,4.0,60,0.00,,---,0.00,VWS V14.01,2013-01-20 02:55:00,
2013-01-19 21:00:00,49.0,35.7,30.14,WSW,241,1.0,5.0,60,0.00,,---,0.00,VWS V14.01,2013-01-20 03:00:00,
2013-01-19 21:02:00,48.9,35.6,30.14,WSW,241,2.0,4.0,60,0.00,,---,0.00,VWS V14.01,2013-01-20 03:02:00,
2013-01-19 21:04:00,48.9,35.6,30.14,WSW,241,1.0,4.0,60,0.00,,---,0.00,VWS V14.01,2013-01-20 03:04:00,
2013-01-19 21:06:00,48.8,35.5,30.14,WSW,241,1.0,4.0,60,0.00,,---,0.00,VWS V14.01,2013-01-20 03:06:00,
2013-01-19 21:10:00,48.6,35.8,30.14,WSW,241,2.0,4.0,61,0.00,,---,0.00,VWS V14.01,2013-01-20 03:10:00,
2013-01-19 21:12:00,48.4,35.6,30.14,WSW,241,3.0,4.0,61,0.00,,---,0.00,VWS V14.01,2013-01-20 03:12:00,
2013-01-19 21:14:00,48.3,35.5,30.14,WSW,241,2.0,4.0,61,0.00,,---,0.00,VWS V14.01,2013-01-20 03:14:00,
2013-01-19 21:21:00,47.8,35.4,30.14,WSW,241,3.0,4.0,62,0.00,,---,0.00,VWS V14.01,2013-01-20 03:21:00,
2013-01-19 21:23:00,47.7,35.3,30.14,WSW,241,3.0,4.0,62,0.00,,---,0.00,VWS V14.01,2013-01-20 03:23:00,
2013-01-19 21:25:00,47.6,35.2,30.14,WSW,241,3.0,4.0,62,0.00,,---,0.00,VWS V14.01,2013-01-20 03:25:00,
2013-01-19 21:27:00,47.5,35.5,30.14,WSW,241,2.0,4.0,63,0.00,,---,0.00,VWS V14.01,2013-01-20 03:27:00,
2013-01-19 21:29:00,47.3,35.4,30.14,WSW,241,3.0,4.0,63,0.00,,---,0.00,VWS V14.01,2013-01-20 03:29:00,
2013-01-19 21:30:00,47.3,35.4,30.14,WSW,241,3.0,4.0,63,0.00,,---,0.00,VWS V14.01,2013-01-20 03:30:00,
2013-01-19 21:31:00,47.2,35.3,30.14,WSW,241,2.0,4.0,63,0.00,,---,0.00,VWS V14.01,2013-01-20 03:31:00,
2013-01-19 21:33:00,47.2,35.3,30.14,WSW,241,2.0,4.0,63,0.00,,---,0.00,VWS V14.01,2013-01-20 03:33:00,
2013-01-19 21:35:00,47.1,35.2,30.14,WSW,241,3.0,4.0,63,0.00,,---,0.00,VWS V14.01,2013-01-20 03:35:00,
2013-01-19 21:37:00,47.0,35.5,30.14,WSW,241,3.0,4.0,64,0.00,,---,0.00,VWS V14.01,2013-01-20 03:37:00,
2013-01-19 21:39:00,46.9,35.4,30.14,WSW,241,3.0,4.0,64,0.00,,---,0.00,VWS V14.01,2013-01-20 03:39:00,
2013-01-19 21:41:00,46.8,35.3,30.14,WSW,241,3.0,4.0,64,0.00,,---,0.00,VWS V14.01,2013-01-20 03:41:00,
2013-01-19 21:43:00,46.7,35.2,30.14,WSW,241,3.0,4.0,64,0.00,,---,0.00,VWS V14.01,2013-01-20 03:43:00,
2013-01-19 21:45:00,46.7,35.2,30.14,WSW,241,3.0,4.0,64,0.00,,---,0.00,VWS V14.01,2013-01-20 03:45:00,
2013-01-19 21:47:00,46.7,35.2,30.14,WSW,241,3.0,4.0,64,0.00,,---,0.00,VWS V14.01,2013-01-20 03:47:00,
2013-01-19 21:49:00,46.7,35.2,30.14,WSW,240,3.0,4.0,64,0.00,,---,0.00,VWS V14.01,2013-01-20 03:49:00,
2013-01-19 21:51:00,46.8,35.3,30.14,WSW,240,3.0,4.0,64,0.00,,---,0.00,VWS V14.01,2013-01-20 03:51:00,
2013-01-19 21:53:00,46.7,35.2,30.14,WSW,240,2.0,4.0,64,0.00,,---,0.00,VWS V14.01,2013-01-20 03:53:00,
2013-01-19 21:55:00,46.7,35.2,30.14,WSW,240,0.0,4.0,64,0.00,,---,0.00,VWS V14.01,2013-01-20 03:55:00,
2013-01-19 21:57:00,46.7,35.2,30.14,WSW,240,0.0,4.0,64,0.00,,---,0.00,VWS V14.01,2013-01-20 03:57:00,
2013-01-19 21:59:00,46.7,35.6,30.14,WSW,240,0.0,4.0,65,0.00,,---,0.00,VWS V14.01,2013-01-20 03:59:00,
2013-01-19 22:00:00,46.7,35.6,30.14,WSW,240,0.0,4.0,65,0.00,,---,0.00,VWS V14.01,2013-01-20 04:00:00,
2013-01-19 22:01:00,46.6,35.5,30.14,WSW,240,0.0,0.0,65,0.00,,---,0.00,VWS V14.01,2013-01-20 04:01:00,
2013-01-19 22:03:00,46.6,35.5,30.14,WSW,240,0.0,0.0,65,0.00,,---,0.00,VWS V14.01,2013-01-20 04:03:00,
2013-01-19 22:05:00,46.6,35.5,30.14,WSW,240,0.0,0.0,65,0.00,,---,0.00,VWS V14.01,2013-01-20 04:05:00,
2013-01-19 22:07:00,46.6,35.5,30.14,WSW,240,0.0,0.0,65,0.00,,---,0.00,VWS V14.01,2013-01-20 04:07:00,
2013-01-19 22:09:00,46.6,35.5,30.14,WSW,240,0.0,0.0,65,0.00,,---,0.00,VWS V14.01,2013-01-20 04:09:00,
2013-01-19 22:11:00,46.6,35.5,30.14,WSW,240,0.0,0.0,65,0.00,,---,0.00,VWS V14.01,2013-01-20 04:11:00,
2013-01-19 22:13:00,46.6,35.5,30.14,WSW,240,0.0,0.0,65,0.00,,---,0.00,VWS V14.01,2013-01-20 04:13:00,
2013-01-19 22:15:00,46.5,35.4,30.14,WSW,240,0.0,0.0,65,0.00,,---,0.00,VWS V14.01,2013-01-20 04:15:00,
2013-01-19 22:17:00,46.5,35.4,30.14,WSW,240,0.0,0.0,65,0.00,,---,0.00,VWS V14.01,2013-01-20 04:17:00,
2013-01-19 22:19:00,46.4,35.3,30.14,WSW,240,0.0,0.0,65,0.00,,---,0.00,VWS V14.01,2013-01-20 04:19:00,
2013-01-19 22:21:00,46.4,35.3,30.14,WSW,240,0.0,0.0,65,0.00,,---,0.00,VWS V14.01,2013-01-20 04:21:00,
2013-01-19 22:23:00,46.4,35.3,30.14,WSW,240,0.0,0.0,65,0.00,,---,0.00,VWS V14.01,2013-01-20 04:23:00,
2013-01-19 22:25:00,46.3,35.2,30.14,WSW,240,0.0,0.0,65,0.00,,---,0.00,VWS V14.01,2013-01-20 04:25:00,
2013-01-19 22:27:00,46.3,35.2,30.15,WSW,240,0.0,0.0,65,0.00,,---,0.00,VWS V14.01,2013-01-20 04:27:00,
2013-01-19 22:29:00,46.2,35.1,30.14,WSW,240,0.0,0.0,65,0.00,,---,0.00,VWS V14.01,2013-01-20 04:29:00,
2013-01-19 22:30:00,46.2,35.1,30.14,WSW,240,0.0,0.0,65,0.00,,---,0.00,VWS V14.01,2013-01-20 04:30:00,
2013-01-19 22:31:00,46.1,35.4,30.15,WSW,240,0.0,0.0,66,0.00,,---,0.00,VWS V14.01,2013-01-20 04:31:00,
2013-01-19 22:33:00,46.0,35.3,30.14,WSW,240,0.0,0.0,66,0.00,,---,0.00,VWS V14.01,2013-01-20 04:33:00,
2013-01-19 22:35:00,45.9,35.2,30.14,WSW,240,0.0,0.0,66,0.00,,---,0.00,VWS V14.01,2013-01-20 04:35:00,
2013-01-19 22:37:00,45.8,35.1,30.14,WSW,240,0.0,0.0,66,0.00,,---,0.00,VWS V14.01,2013-01-20 04:37:00,
2013-01-19 22:39:00,45.8,35.1,30.14,WSW,240,0.0,0.0,66,0.00,,---,0.00,VWS V14.01,2013-01-20 04:39:00,
2013-01-19 22:41:00,45.7,35.4,30.14,WSW,240,0.0,0.0,67,0.00,,---,0.00,VWS V14.01,2013-01-20 04:41:00,
2013-01-19 22:43:00,45.7,35.4,30.14,WSW,240,0.0,0.0,67,0.00,,---,0.00,VWS V14.01,2013-01-20 04:43:00,
2013-01-19 22:45:00,45.6,35.3,30.14,WSW,240,0.0,0.0,67,0.00,,---,0.00,VWS V14.01,2013-01-20 04:45:00,
2013-01-19 22:47:00,45.6,35.3,30.15,WSW,240,0.0,0.0,67,0.00,,---,0.00,VWS V14.01,2013-01-20 04:47:00,
2013-01-19 22:49:00,45.6,35.3,30.14,WSW,240,0.0,0.0,67,0.00,,---,0.00,VWS V14.01,2013-01-20 04:49:00,
2013-01-19 22:51:00,45.6,35.3,30.14,WSW,240,0.0,2.0,67,0.00,,---,0.00,VWS V14.01,2013-01-20 04:51:00,
2013-01-19 22:53:00,45.6,35.3,30.15,WSW,240,0.0,2.0,67,0.00,,---,0.00,VWS V14.01,2013-01-20 04:53:00,
2013-01-19 22:55:00,45.6,35.3,30.15,WSW,240,0.0,2.0,67,0.00,,---,0.00,VWS V14.01,2013-01-20 04:55:00,
2013-01-19 22:57:00,45.6,35.3,30.15,WSW,240,0.0,2.0,67,0.00,,---,0.00,VWS V14.01,2013-01-20 04:57:00,
2013-01-19 22:59:00,45.6,35.3,30.15,NNE,24,8.0,11.0,67,0.00,,---,0.00,VWS V14.01,2013-01-20 04:59:00,
2013-01-19 23:00:00,45.6,35.3,30.15,NNE,23,16.0,16.0,67,0.00,,---,0.00,VWS V14.01,2013-01-20 05:00:00,
2013-01-19 23:01:00,45.1,34.4,30.17,NNE,19,6.0,16.0,66,0.00,,---,0.00,VWS V14.01,2013-01-20 05:01:00,
2013-01-19 23:03:00,44.5,34.6,30.17,North,10,7.0,16.0,68,0.00,,---,0.00,VWS V14.01,2013-01-20 05:03:00,
2013-01-19 23:05:00,44.0,34.1,30.17,NNW,348,4.0,16.0,68,0.00,,---,0.00,VWS V14.01,2013-01-20 05:05:00,
2013-01-19 23:07:00,43.8,33.9,30.17,NNW,348,0.0,16.0,68,0.00,,---,0.00,VWS V14.01,2013-01-20 05:07:00,
2013-01-19 23:10:00,43.5,34.0,30.17,NNW,348,0.0,16.0,69,0.00,,---,0.00,VWS V14.01,2013-01-20 05:10:00,
2013-01-19 23:12:00,43.3,33.8,30.17,NNW,348,0.0,16.0,69,0.00,,---,0.00,VWS V14.01,2013-01-20 05:12:00,
2013-01-19 23:14:00,43.2,34.1,30.17,NNW,348,0.0,16.0,70,0.00,,---,0.00,VWS V14.01,2013-01-20 05:14:00,
2013-01-19 23:16:00,43.1,34.0,30.17,NNW,348,0.0,16.0,70,0.00,,---,0.00,VWS V14.01,2013-01-20 05:16:00,
2013-01-19 23:18:00,43.1,34.0,30.17,NNW,348,0.0,16.0,70,0.00,,---,0.00,VWS V14.01,2013-01-20 05:18:00,
2013-01-19 23:20:00,43.1,34.3,30.17,NNW,348,0.0,16.0,71,0.00,,---,0.00,VWS V14.01,2013-01-20 05:20:00,
2013-01-19 23:22:00,43.2,34.5,30.18,NNW,348,0.0,16.0,71,0.00,,---,0.00,VWS V14.01,2013-01-20 05:22:00,
2013-01-19 23:24:00,43.3,34.5,30.17,NNW,348,0.0,16.0,71,0.00,,---,0.00,VWS V14.01,2013-01-20 05:24:00,
2013-01-19 23:26:00,43.3,34.5,30.18,NNW,348,0.0,16.0,71,0.00,,---,0.00,VWS V14.01,2013-01-20 05:26:00,
2013-01-19 23:28:00,43.3,34.2,30.17,NNW,348,0.0,16.0,70,0.00,,---,0.00,VWS V14.01,2013-01-20 05:28:00,
2013-01-19 23:30:00,43.4,34.3,30.18,NNW,348,0.0,16.0,70,0.00,,---,0.00,VWS V14.01,2013-01-20 05:30:00,
2013-01-19 23:32:00,43.4,34.3,30.18,NNW,348,0.0,0.0,70,0.00,,---,0.00,VWS V14.01,2013-01-20 05:32:00,
2013-01-19 23:34:00,43.4,34.3,30.18,NNW,348,0.0,0.0,70,0.00,,---,0.00,VWS V14.01,2013-01-20 05:34:00,
2013-01-19 23:36:00,43.4,34.3,30.18,NNW,348,0.0,0.0,70,0.00,,---,0.00,VWS V14.01,2013-01-20 05:36:00,
2013-01-19 23:38:00,43.4,34.3,30.18,NNW,348,0.0,0.0,70,0.00,,---,0.00,VWS V14.01,2013-01-20 05:38:00,
2013-01-19 23:40:00,43.4,34.6,30.18,NNW,348,0.0,0.0,71,0.00,,---,0.00,VWS V14.01,2013-01-20 05:40:00,
2013-01-19 23:42:00,43.3,34.5,30.18,NNW,348,0.0,0.0,71,0.00,,---,0.00,VWS V14.01,2013-01-20 05:42:00,
2013-01-19 23:44:00,43.3,34.5,30.18,NNW,348,0.0,0.0,71,0.00,,---,0.00,VWS V14.01,2013-01-20 05:44:00,
2013-01-19 23:46:00,43.3,34.5,30.18,NNW,348,0.0,0.0,71,0.00,,---,0.00,VWS V14.01,2013-01-20 05:46:00,
2013-01-19 23:48:00,43.3,34.5,30.18,NNW,348,0.0,0.0,71,0.00,,---,0.00,VWS V14.01,2013-01-20 05:48:00,
2013-01-19 23:50:00,43.3,34.5,30.18,NNW,348,0.0,0.0,71,0.00,,---,0.00,VWS V14.01,2013-01-20 05:50:00,
2013-01-19 23:52:00,43.3,34.5,30.18,NNW,348,0.0,0.0,71,0.00,,---,0.00,VWS V14.01,2013-01-20 05:52:00,
2013-01-19 23:54:00,43.3,34.5,30.18,NNW,348,0.0,0.0,71,0.00,,---,0.00,VWS V14.01,2013-01-20 05:54:00,
2013-01-19 23:56:00,43.3,34.5,30.18,NNW,348,0.0,0.0,71,0.00,,---,0.00,VWS V14.01,2013-01-20 05:56:00,
2013-01-19 23:58:00,43.4,34.6,30.18,NNW,348,0.0,0.0,71,0.00,,---,0.00,VWS V14.01,2013-01-20 05:58:00,